Wetterdaten: Sonntag, 17.07.2011
Datum Zeit Temp. Innen Temp. Aussen UV X Diff Temp. Feuchte Inne Feuchte Auss Sonnenschein Luftdruck Regen ab 0,1 Wind Sonnenschein T Regendauer Windben
17.07.2011 00:00 23,0 C 16,4 C 0,0 UV-I 0,0 C 58 % 91 % 0 % 998,7 hPa 0,0 l/m 3,6 km/h (1 Bft) 0 min 2 min 7,4 km/h (2 Bft)
17.07.2011 00:02 23,0 C 16,4 C 0,0 UV-I 0,0 C 58 % 91 % 0 % 998,7 hPa 0,1 l/m 4,4 km/h (1 Bft) 0 min 2 min 8,7 km/h (2 Bft)
17.07.2011 00:04 23,0 C 16,4 C 0,0 UV-I 0,0 C 58 % 91 % 0 % 998,2 hPa 0,1 l/m 5,6 km/h (1 Bft) 0 min 2 min 8,7 km/h (2 Bft)
17.07.2011 00:06 23,0 C 16,4 C 0,0 UV-I 0,0 C 59 % 91 % 0 % 998,2 hPa 0,0 l/m 6,0 km/h (2 Bft) 0 min 2 min 6,1 km/h (2 Bft)
17.07.2011 00:08 23,0 C 16,4 C 0,0 UV-I 0,0 C 59 % 91 % 0 % 998,2 hPa 0,1 l/m 6,8 km/h (2 Bft) 0 min 2 min 12,2 km/h (2 Bft)
17.07.2011 00:10 23,0 C 16,4 C 0,0 UV-I 0,0 C 59 % 91 % 0 % 998,2 hPa 0,1 l/m 7,6 km/h (2 Bft) 0 min 2 min 12,2 km/h (2 Bft)
17.07.2011 00:12 23,0 C 16,4 C 0,0 UV-I 0,0 C 59 % 91 % 0 % 998,2 hPa 0,0 l/m 6,8 km/h (2 Bft) 0 min 2 min 9,0 km/h (2 Bft)
17.07.2011 00:14 23,0 C 16,4 C 0,0 UV-I 0,0 C 59 % 91 % 0 % 998,2 hPa 0,2 l/m 6,4 km/h (2 Bft) 0 min 2 min 8,4 km/h (2 Bft)
17.07.2011 00:16 23,0 C 16,4 C 0,0 UV-I 0,0 C 59 % 91 % 0 % 998,2 hPa 0,4 l/m 6,8 km/h (2 Bft) 0 min 2 min 14,2 km/h (3 Bft)
17.07.2011 00:18 23,0 C 16,4 C 0,0 UV-I 0,0 C 59 % 91 % 0 % 998,2 hPa 0,0 l/m 7,2 km/h (2 Bft) 0 min 2 min 13,5 km/h (3 Bft)
17.07.2011 00:20 23,0 C 16,4 C 0,0 UV-I 0,0 C 59 % 91 % 0 % 998,2 hPa 0,1 l/m 7,2 km/h (2 Bft) 0 min 2 min 13,5 km/h (3 Bft)
17.07.2011 00:22 23,0 C 16,5 C 0,0 UV-I 0,0 C 59 % 91 % 0 % 998,2 hPa 0,2 l/m 6,8 km/h (2 Bft) 0 min 2 min 5,8 km/h (2 Bft)
17.07.2011 00:24 22,9 C 16,5 C 0,0 UV-I 0,0 C 59 % 91 % 0 % 998,1 hPa 0,0 l/m 6,8 km/h (2 Bft) 0 min 2 min 15,4 km/h (3 Bft)
17.07.2011 00:26 22,9 C 16,5 C 0,0 UV-I 0,0 C 59 % 91 % 0 % 998,1 hPa 0,1 l/m 6,8 km/h (2 Bft) 0 min 2 min 15,4 km/h (3 Bft)
17.07.2011 00:28 22,9 C 16,4 C 0,0 UV-I 0,0 C 59 % 91 % 0 % 998,1 hPa 0,2 l/m 6,8 km/h (2 Bft) 0 min 2 min 7,1 km/h (2 Bft)
17.07.2011 00:30 22,9 C 16,5 C 0,0 UV-I 0,0 C 59 % 91 % 0 % 998,1 hPa 0,0 l/m 6,4 km/h (2 Bft) 0 min 2 min 6,8 km/h (2 Bft)
17.07.2011 00:32 22,9 C 16,5 C 0,0 UV-I 0,0 C 59 % 91 % 0 % 998,1 hPa 0,4 l/m 6,4 km/h (2 Bft) 0 min 2 min 7,4 km/h (2 Bft)
17.07.2011 00:34 22,9 C 16,5 C 0,0 UV-I 0,0 C 59 % 91 % 0 % 998,1 hPa 0,1 l/m 7,2 km/h (2 Bft) 0 min 2 min 7,4 km/h (2 Bft)
17.07.2011 00:36 22,9 C 16,5 C 0,0 UV-I 0,0 C 59 % 91 % 0 % 998,1 hPa 0,0 l/m 7,2 km/h (2 Bft) 0 min 2 min 12,2 km/h (2 Bft)
17.07.2011 00:38 22,9 C 16,5 C 0,0 UV-I 0,0 C 59 % 91 % 0 % 998,1 hPa 0,2 l/m 7,2 km/h (2 Bft) 0 min 2 min 12,2 km/h (2 Bft)
17.07.2011 00:40 22,9 C 16,5 C 0,0 UV-I 0,0 C 59 % 91 % 0 % 998,1 hPa 0,0 l/m 6,0 km/h (2 Bft) 0 min 2 min 6,1 km/h (2 Bft)
17.07.2011 00:42 22,9 C 16,4 C 0,0 UV-I 0,0 C 59 % 91 % 0 % 998,1 hPa 0,2 l/m 5,2 km/h (1 Bft) 0 min 2 min 6,1 km/h (2 Bft)
17.07.2011 00:44 22,9 C 16,4 C 0,0 UV-I 0,0 C 59 % 91 % 0 % 998,3 hPa 0,1 l/m 3,6 km/h (1 Bft) 0 min 2 min 0,0 km/h (0 Bft)
17.07.2011 00:46 22,9 C 16,4 C 0,0 UV-I 0,0 C 59 % 91 % 0 % 998,3 hPa 0,0 l/m 3,6 km/h (1 Bft) 0 min 2 min 4,2 km/h (1 Bft)
17.07.2011 00:48 22,9 C 16,4 C 0,0 UV-I 0,0 C 59 % 91 % 0 % 998,3 hPa 0,1 l/m 3,2 km/h (1 Bft) 0 min 2 min 8,4 km/h (2 Bft)
17.07.2011 00:50 22,9 C 16,4 C 0,0 UV-I 0,0 C 59 % 91 % 0 % 998,3 hPa 0,1 l/m 3,6 km/h (1 Bft) 0 min 2 min 8,4 km/h (2 Bft)
17.07.2011 00:52 22,9 C 16,4 C 0,0 UV-I 0,0 C 59 % 91 % 0 % 998,3 hPa 0,0 l/m 4,4 km/h (1 Bft) 0 min 2 min 6,1 km/h (2 Bft)
17.07.2011 00:54 22,9 C 16,4 C 0,0 UV-I 0,0 C 59 % 91 % 0 % 998,3 hPa 0,0 l/m 5,2 km/h (1 Bft) 0 min 2 min 11,9 km/h (2 Bft)
17.07.2011 00:56 22,9 C 16,4 C 0,0 UV-I 0,0 C 59 % 91 % 0 % 998,3 hPa 0,1 l/m 4,8 km/h (1 Bft) 0 min 2 min 11,9 km/h (2 Bft)
17.07.2011 00:58 22,9 C 16,4 C 0,0 UV-I 0,0 C 59 % 91 % 0 % 998,3 hPa 0,0 l/m 5,2 km/h (1 Bft) 0 min 2 min 7,1 km/h (2 Bft)
17.07.2011 01:00 22,9 C 16,4 C 0,0 UV-I 0,0 C 59 % 91 % 0 % 998,3 hPa 0,0 l/m 4,8 km/h (1 Bft) 0 min 2 min 7,1 km/h (2 Bft)
17.07.2011 01:02 22,9 C 16,4 C 0,0 UV-I 0,0 C 59 % 91 % 0 % 998,3 hPa 0,1 l/m 5,2 km/h (1 Bft) 0 min 2 min 12,2 km/h (2 Bft)
17.07.2011 01:04 22,9 C 16,4 C 0,0 UV-I 0,0 C 59 % 91 % 0 % 997,8 hPa 0,0 l/m 5,6 km/h (1 Bft) 0 min 2 min 12,2 km/h (2 Bft)
17.07.2011 01:06 22,9 C 16,4 C 0,0 UV-I 0,0 C 59 % 91 % 0 % 997,8 hPa 0,0 l/m 5,6 km/h (1 Bft) 0 min 2 min 4,8 km/h (1 Bft)
17.07.2011 01:08 22,9 C 16,3 C 0,1 UV-I 0,0 C 59 % 91 % 0 % 997,8 hPa 0,1 l/m 5,2 km/h (1 Bft) 0 min 2 min 8,7 km/h (2 Bft)
17.07.2011 01:10 22,9 C 16,3 C 0,1 UV-I 0,0 C 59 % 91 % 0 % 997,8 hPa 0,0 l/m 5,2 km/h (1 Bft) 0 min 2 min 8,7 km/h (2 Bft)
17.07.2011 01:12 22,9 C 16,3 C 0,1 UV-I 0,0 C 59 % 91 % 0 % 997,8 hPa 0,0 l/m 5,6 km/h (1 Bft) 0 min 2 min 8,0 km/h (2 Bft)
17.07.2011 01:14 22,9 C 16,3 C 0,1 UV-I 0,0 C 60 % 91 % 0 % 997,8 hPa 0,1 l/m 5,2 km/h (1 Bft) 0 min 2 min 11,3 km/h (2 Bft)
17.07.2011 01:16 22,9 C 16,3 C 0,1 UV-I 0,0 C 60 % 91 % 0 % 997,8 hPa 0,0 l/m 5,2 km/h (1 Bft) 0 min 2 min 11,3 km/h (2 Bft)
17.07.2011 01:18 22,8 C 16,3 C 0,0 UV-I 0,0 C 60 % 91 % 0 % 997,8 hPa 0,0 l/m 6,8 km/h (2 Bft) 0 min 2 min 9,7 km/h (2 Bft)
17.07.2011 01:20 22,8 C 16,3 C 0,0 UV-I 0,0 C 60 % 91 % 0 % 997,8 hPa 0,1 l/m 7,6 km/h (2 Bft) 0 min 2 min 7,1 km/h (2 Bft)
17.07.2011 01:22 22,8 C 16,3 C 0,0 UV-I 0,0 C 60 % 91 % 0 % 997,8 hPa 0,0 l/m 8,4 km/h (2 Bft) 0 min 2 min 12,2 km/h (2 Bft)
17.07.2011 01:24 22,8 C 16,3 C 0,1 UV-I 0,0 C 60 % 91 % 0 % 997,4 hPa 0,0 l/m 7,6 km/h (2 Bft) 0 min 2 min 12,2 km/h (2 Bft)
17.07.2011 01:26 22,8 C 16,3 C 0,1 UV-I 0,0 C 60 % 91 % 0 % 997,4 hPa 0,1 l/m 6,4 km/h (2 Bft) 0 min 2 min 5,5 km/h (1 Bft)
17.07.2011 01:28 22,8 C 16,3 C 0,0 UV-I 0,0 C 60 % 91 % 0 % 997,4 hPa 0,0 l/m 5,6 km/h (1 Bft) 0 min 2 min 5,5 km/h (1 Bft)
17.07.2011 01:30 22,8 C 16,3 C 0,0 UV-I 0,0 C 60 % 91 % 0 % 997,4 hPa 0,0 l/m 4,0 km/h (1 Bft) 0 min 2 min 6,8 km/h (2 Bft)
17.07.2011 01:32 22,8 C 16,3 C 0,0 UV-I 0,0 C 60 % 91 % 0 % 997,4 hPa 0,0 l/m 4,0 km/h (1 Bft) 0 min 2 min 6,8 km/h (2 Bft)
17.07.2011 01:34 22,8 C 16,3 C 0,0 UV-I 0,0 C 60 % 91 % 0 % 997,4 hPa 0,0 l/m 3,2 km/h (1 Bft) 0 min 2 min 8,4 km/h (2 Bft)
17.07.2011 01:36 22,8 C 16,3 C 0,0 UV-I 0,0 C 60 % 91 % 0 % 997,4 hPa 0,0 l/m 4,8 km/h (1 Bft) 0 min 2 min 8,4 km/h (2 Bft)
17.07.2011 01:38 22,8 C 16,3 C 0,0 UV-I 0,0 C 60 % 91 % 0 % 997,4 hPa 0,1 l/m 5,2 km/h (1 Bft) 0 min 2 min 6,4 km/h (2 Bft)
17.07.2011 01:40 22,8 C 16,3 C 0,0 UV-I 0,0 C 60 % 91 % 0 % 997,4 hPa 0,0 l/m 6,0 km/h (2 Bft) 0 min 2 min 7,1 km/h (2 Bft)
17.07.2011 01:42 22,8 C 16,3 C 0,0 UV-I 0,0 C 60 % 91 % 0 % 997,4 hPa 0,0 l/m 6,0 km/h (2 Bft) 0 min 2 min 7,1 km/h (2 Bft)
17.07.2011 01:44 22,8 C 16,3 C 0,0 UV-I 0,0 C 60 % 92 % 0 % 997,3 hPa 0,0 l/m 6,0 km/h (2 Bft) 0 min 2 min 5,8 km/h (2 Bft)
17.07.2011 01:46 22,8 C 16,3 C 0,0 UV-I 0,0 C 60 % 92 % 0 % 997,3 hPa 0,0 l/m 6,0 km/h (2 Bft) 0 min 2 min 5,8 km/h (2 Bft)
17.07.2011 01:48 22,8 C 16,3 C 0,0 UV-I 0,0 C 60 % 92 % 0 % 997,3 hPa 0,1 l/m 6,0 km/h (2 Bft) 0 min 2 min 6,4 km/h (2 Bft)
17.07.2011 01:50 22,8 C 16,3 C 0,0 UV-I 0,0 C 60 % 92 % 0 % 997,3 hPa 0,0 l/m 5,6 km/h (1 Bft) 0 min 2 min 6,4 km/h (2 Bft)
17.07.2011 01:52 22,8 C 16,3 C 0,0 UV-I 0,0 C 60 % 92 % 0 % 997,3 hPa 0,0 l/m 5,2 km/h (1 Bft) 0 min 2 min 8,0 km/h (2 Bft)
17.07.2011 01:54 22,8 C 16,3 C 0,0 UV-I 0,0 C 60 % 92 % 0 % 997,3 hPa 0,0 l/m 6,0 km/h (2 Bft) 0 min 2 min 14,8 km/h (3 Bft)
17.07.2011 01:56 22,8 C 16,3 C 0,0 UV-I 0,0 C 60 % 92 % 0 % 997,3 hPa 0,0 l/m 5,2 km/h (1 Bft) 0 min 2 min 14,8 km/h (3 Bft)
17.07.2011 01:58 22,8 C 16,3 C 0,0 UV-I 0,0 C 60 % 92 % 0 % 997,3 hPa 0,0 l/m 4,0 km/h (1 Bft) 0 min 2 min 0,0 km/h (0 Bft)
17.07.2011 02:00 22,8 C 16,2 C 0,0 UV-I 0,0 C 60 % 92 % 0 % 997,3 hPa 0,1 l/m 3,2 km/h (1 Bft) 0 min 2 min 0,0 km/h (0 Bft)
17.07.2011 02:02 22,8 C 16,3 C 0,0 UV-I 0,0 C 60 % 92 % 0 % 997,3 hPa 0,0 l/m 3,6 km/h (1 Bft) 0 min 2 min 3,5 km/h (1 Bft)
17.07.2011 02:04 22,7 C 16,2 C 0,0 UV-I 0,0 C 60 % 92 % 0 % 996,9 hPa 0,0 l/m 2,8 km/h (1 Bft) 0 min 2 min 3,5 km/h (1 Bft)
17.07.2011 02:06 22,8 C 16,2 C 0,0 UV-I 0,0 C 60 % 92 % 0 % 996,9 hPa 0,0 l/m 2,0 km/h (1 Bft) 0 min 2 min 0,0 km/h (0 Bft)
17.07.2011 02:08 22,7 C 16,2 C 0,0 UV-I 0,0 C 60 % 92 % 0 % 996,9 hPa 0,0 l/m 2,0 km/h (1 Bft) 0 min 2 min 0,0 km/h (0 Bft)
17.07.2011 02:10 22,8 C 16,2 C 0,0 UV-I 0,0 C 60 % 92 % 0 % 996,9 hPa 0,1 l/m 2,8 km/h (1 Bft) 0 min 2 min 8,7 km/h (2 Bft)
17.07.2011 02:12 22,7 C 16,3 C 0,0 UV-I 0,0 C 60 % 92 % 0 % 996,9 hPa 0,0 l/m 2,0 km/h (1 Bft) 0 min 2 min 8,7 km/h (2 Bft)
17.07.2011 02:14 22,7 C 16,3 C 0,0 UV-I 0,0 C 60 % 92 % 0 % 996,9 hPa 0,0 l/m 2,0 km/h (1 Bft) 0 min 2 min 0,0 km/h (0 Bft)
17.07.2011 02:16 22,7 C 16,3 C 0,0 UV-I 0,0 C 60 % 92 % 0 % 996,9 hPa 0,0 l/m 2,0 km/h (1 Bft) 0 min 2 min 4,5 km/h (1 Bft)
17.07.2011 02:18 22,8 C 16,3 C 0,0 UV-I 0,0 C 60 % 92 % 0 % 996,9 hPa 0,0 l/m 2,8 km/h (1 Bft) 0 min 2 min 8,4 km/h (2 Bft)
17.07.2011 02:20 22,7 C 16,3 C 0,0 UV-I 0,0 C 60 % 92 % 0 % 996,9 hPa 0,0 l/m 3,6 km/h (1 Bft) 0 min 2 min 8,4 km/h (2 Bft)
17.07.2011 02:22 22,7 C 16,3 C 0,0 UV-I 0,0 C 60 % 92 % 0 % 996,9 hPa 0,0 l/m 4,0 km/h (1 Bft) 0 min 2 min 4,5 km/h (1 Bft)
17.07.2011 02:24 22,7 C 16,3 C 0,0 UV-I 0,0 C 60 % 92 % 0 % 996,9 hPa 0,0 l/m 4,4 km/h (1 Bft) 0 min 2 min 6,1 km/h (2 Bft)
17.07.2011 02:26 22,7 C 16,3 C 0,0 UV-I 0,0 C 60 % 92 % 0 % 996,9 hPa 0,0 l/m 5,2 km/h (1 Bft) 0 min 2 min 6,1 km/h (2 Bft)
17.07.2011 02:28 22,7 C 16,3 C 0,0 UV-I 0,0 C 60 % 92 % 0 % 996,9 hPa 0,1 l/m 6,0 km/h (2 Bft) 0 min 2 min 15,4 km/h (3 Bft)
17.07.2011 02:30 22,7 C 16,2 C 0,0 UV-I 0,0 C 60 % 92 % 0 % 996,9 hPa 0,0 l/m 6,4 km/h (2 Bft) 0 min 2 min 15,4 km/h (3 Bft)
17.07.2011 02:32 22,7 C 16,2 C 0,0 UV-I 0,0 C 60 % 92 % 0 % 996,9 hPa 0,0 l/m 7,6 km/h (2 Bft) 0 min 2 min 12,2 km/h (2 Bft)
17.07.2011 02:34 22,7 C 16,2 C 0,0 UV-I 0,0 C 60 % 92 % 0 % 996,9 hPa 0,0 l/m 7,2 km/h (2 Bft) 0 min 2 min 6,1 km/h (2 Bft)
17.07.2011 02:36 22,7 C 16,3 C 0,0 UV-I 0,0 C 60 % 92 % 0 % 996,9 hPa 0,0 l/m 7,2 km/h (2 Bft) 0 min 2 min 4,8 km/h (1 Bft)
17.07.2011 02:38 22,7 C 16,2 C 0,0 UV-I 0,0 C 60 % 92 % 0 % 996,9 hPa 0,0 l/m 7,6 km/h (2 Bft) 0 min 2 min 5,5 km/h (1 Bft)
17.07.2011 02:40 22,7 C 16,2 C 0,0 UV-I 0,0 C 60 % 92 % 0 % 996,9 hPa 0,0 l/m 7,6 km/h (2 Bft) 0 min 2 min 15,8 km/h (3 Bft)
17.07.2011 02:42 22,7 C 16,2 C 0,0 UV-I 0,0 C 61 % 92 % 0 % 996,9 hPa 0,0 l/m 6,8 km/h (2 Bft) 0 min 2 min 15,8 km/h (3 Bft)
17.07.2011 02:44 22,7 C 16,2 C 0,0 UV-I 0,0 C 61 % 92 % 0 % 996,5 hPa 0,0 l/m 6,4 km/h (2 Bft) 0 min 2 min 9,7 km/h (2 Bft)
17.07.2011 02:46 22,7 C 16,2 C 0,0 UV-I 0,0 C 60 % 92 % 0 % 996,5 hPa 0,0 l/m 6,8 km/h (2 Bft) 0 min 2 min 15,8 km/h (3 Bft)
17.07.2011 02:48 22,7 C 16,2 C 0,0 UV-I 0,0 C 60 % 92 % 0 % 996,5 hPa 0,0 l/m 6,8 km/h (2 Bft) 0 min 2 min 10,9 km/h (2 Bft)
17.07.2011 02:50 22,7 C 16,2 C 0,0 UV-I 0,0 C 61 % 92 % 0 % 996,5 hPa 0,0 l/m 6,8 km/h (2 Bft) 0 min 2 min 10,9 km/h (2 Bft)
17.07.2011 02:52 22,7 C 16,3 C 0,0 UV-I 0,0 C 61 % 92 % 0 % 996,5 hPa 0,0 l/m 6,8 km/h (2 Bft) 0 min 2 min 12,6 km/h (3 Bft)
17.07.2011 02:54 22,7 C 16,2 C 0,0 UV-I 0,0 C 61 % 92 % 0 % 996,5 hPa 0,0 l/m 6,8 km/h (2 Bft) 0 min 2 min 12,6 km/h (3 Bft)
17.07.2011 02:56 22,7 C 16,2 C 0,0 UV-I 0,0 C 61 % 92 % 0 % 996,5 hPa 0,0 l/m 7,6 km/h (2 Bft) 0 min 2 min 11,6 km/h (2 Bft)
17.07.2011 02:58 22,7 C 16,3 C 0,0 UV-I 0,0 C 61 % 92 % 0 % 996,5 hPa 0,0 l/m 7,6 km/h (2 Bft) 0 min 2 min 11,6 km/h (2 Bft)
17.07.2011 03:00 22,6 C 16,3 C 0,0 UV-I 0,0 C 61 % 92 % 0 % 996,5 hPa 0,0 l/m 8,0 km/h (2 Bft) 0 min 2 min 11,3 km/h (2 Bft)
17.07.2011 03:02 22,7 C 16,2 C 0,0 UV-I 0,0 C 61 % 92 % 0 % 996,5 hPa 0,0 l/m 8,8 km/h (2 Bft) 0 min 2 min 11,3 km/h (2 Bft)
17.07.2011 03:04 22,6 C 16,2 C 0,0 UV-I 0,0 C 61 % 92 % 0 % 996,2 hPa 0,0 l/m 8,4 km/h (2 Bft) 0 min 2 min 5,8 km/h (2 Bft)
17.07.2011 03:06 22,7 C 16,3 C 0,0 UV-I 0,0 C 61 % 92 % 0 % 996,2 hPa 0,0 l/m 9,2 km/h (2 Bft) 0 min 2 min 16,7 km/h (3 Bft)
17.07.2011 03:08 22,6 C 16,2 C 0,0 UV-I 0,0 C 61 % 92 % 0 % 996,2 hPa 0,1 l/m 8,8 km/h (2 Bft) 0 min 2 min 8,0 km/h (2 Bft)
17.07.2011 03:10 22,6 C 16,3 C 0,0 UV-I 0,0 C 61 % 92 % 0 % 996,2 hPa 0,0 l/m 9,6 km/h (2 Bft) 0 min 2 min 7,7 km/h (2 Bft)
17.07.2011 03:12 22,6 C 16,3 C 0,0 UV-I 0,0 C 61 % 92 % 0 % 996,2 hPa 0,0 l/m 9,2 km/h (2 Bft) 0 min 2 min 7,1 km/h (2 Bft)
17.07.2011 03:14 22,6 C 16,3 C 0,0 UV-I 0,0 C 61 % 92 % 0 % 996,2 hPa 0,0 l/m 9,2 km/h (2 Bft) 0 min 2 min 8,0 km/h (2 Bft)
17.07.2011 03:16 22,6 C 16,3 C 0,0 UV-I 0,0 C 61 % 92 % 0 % 996,2 hPa 0,0 l/m 8,0 km/h (2 Bft) 0 min 2 min 8,0 km/h (2 Bft)
17.07.2011 03:18 22,6 C 16,3 C 0,0 UV-I 0,0 C 61 % 92 % 0 % 996,2 hPa 0,0 l/m 7,2 km/h (2 Bft) 0 min 2 min 5,5 km/h (1 Bft)
17.07.2011 03:20 22,6 C 16,3 C 0,0 UV-I 0,0 C 61 % 92 % 0 % 996,2 hPa 0,0 l/m 7,2 km/h (2 Bft) 0 min 2 min 11,6 km/h (2 Bft)
17.07.2011 03:22 22,6 C 16,3 C 0,0 UV-I 0,0 C 61 % 92 % 0 % 996,2 hPa 0,0 l/m 7,2 km/h (2 Bft) 0 min 2 min 11,6 km/h (2 Bft)
17.07.2011 03:24 22,6 C 16,3 C 0,0 UV-I 0,0 C 61 % 92 % 0 % 995,9 hPa 0,0 l/m 7,6 km/h (2 Bft) 0 min 2 min 11,6 km/h (2 Bft)
17.07.2011 03:26 22,6 C 16,3 C 0,0 UV-I 0,0 C 61 % 92 % 0 % 995,9 hPa 0,0 l/m 8,0 km/h (2 Bft) 0 min 2 min 17,4 km/h (3 Bft)
17.07.2011 03:28 22,6 C 16,3 C 0,0 UV-I 0,0 C 61 % 92 % 0 % 995,9 hPa 0,0 l/m 8,8 km/h (2 Bft) 0 min 2 min 8,7 km/h (2 Bft)
17.07.2011 03:30 22,6 C 16,3 C 0,0 UV-I 0,0 C 61 % 92 % 0 % 995,9 hPa 0,0 l/m 9,2 km/h (2 Bft) 0 min 2 min 7,7 km/h (2 Bft)
17.07.2011 03:32 22,6 C 16,3 C 0,0 UV-I 0,0 C 61 % 92 % 0 % 995,9 hPa 0,1 l/m 8,8 km/h (2 Bft) 0 min 2 min 6,1 km/h (2 Bft)
17.07.2011 03:34 22,6 C 16,3 C 0,0 UV-I 0,0 C 61 % 92 % 0 % 995,9 hPa 0,0 l/m 8,4 km/h (2 Bft) 0 min 2 min 6,1 km/h (2 Bft)
17.07.2011 03:36 22,6 C 16,3 C 0,0 UV-I 0,0 C 61 % 92 % 0 % 995,9 hPa 0,0 l/m 7,6 km/h (2 Bft) 0 min 2 min 6,1 km/h (2 Bft)
17.07.2011 03:38 22,6 C 16,2 C 0,0 UV-I 0,0 C 61 % 92 % 0 % 995,9 hPa 0,0 l/m 8,0 km/h (2 Bft) 0 min 2 min 8,4 km/h (2 Bft)
17.07.2011 03:40 22,6 C 16,2 C 0,0 UV-I 0,0 C 61 % 92 % 0 % 995,9 hPa 0,0 l/m 8,0 km/h (2 Bft) 0 min 2 min 9,0 km/h (2 Bft)
17.07.2011 03:42 22,6 C 16,2 C 0,0 UV-I 0,0 C 61 % 92 % 0 % 995,9 hPa 0,0 l/m 7,6 km/h (2 Bft) 0 min 2 min 9,0 km/h (2 Bft)
17.07.2011 03:44 22,6 C 16,3 C 0,0 UV-I 0,0 C 61 % 92 % 0 % 995,8 hPa 0,0 l/m 8,4 km/h (2 Bft) 0 min 2 min 8,4 km/h (2 Bft)
17.07.2011 03:46 22,6 C 16,3 C 0,0 UV-I 0,0 C 61 % 92 % 0 % 995,8 hPa 0,0 l/m 8,4 km/h (2 Bft) 0 min 2 min 11,6 km/h (2 Bft)
17.07.2011 03:48 22,6 C 16,2 C 0,0 UV-I 0,0 C 61 % 92 % 0 % 995,8 hPa 0,1 l/m 9,2 km/h (2 Bft) 0 min 2 min 14,8 km/h (3 Bft)
17.07.2011 03:50 22,6 C 16,2 C 0,0 UV-I 0,0 C 61 % 92 % 0 % 995,8 hPa 0,0 l/m 9,2 km/h (2 Bft) 0 min 2 min 14,8 km/h (3 Bft)
17.07.2011 03:52 22,6 C 16,2 C 0,0 UV-I 0,0 C 61 % 92 % 0 % 995,8 hPa 0,0 l/m 9,6 km/h (2 Bft) 0 min 2 min 10,9 km/h (2 Bft)
17.07.2011 03:54 22,6 C 16,2 C 0,0 UV-I 0,0 C 61 % 92 % 0 % 995,8 hPa 0,1 l/m 9,6 km/h (2 Bft) 0 min 2 min 10,9 km/h (2 Bft)
17.07.2011 03:56 22,6 C 16,3 C 0,0 UV-I 0,0 C 61 % 92 % 0 % 995,8 hPa 0,0 l/m 9,6 km/h (2 Bft) 0 min 2 min 21,2 km/h (4 Bft)
17.07.2011 03:58 22,6 C 16,2 C 0,0 UV-I 0,0 C 61 % 92 % 0 % 995,8 hPa 0,0 l/m 8,8 km/h (2 Bft) 0 min 2 min 10,3 km/h (2 Bft)
17.07.2011 04:00 22,6 C 16,2 C 0,0 UV-I 0,0 C 61 % 92 % 0 % 995,8 hPa 0,1 l/m 7,6 km/h (2 Bft) 0 min 2 min 10,3 km/h (2 Bft)
17.07.2011 04:02 22,6 C 16,3 C 0,0 UV-I 0,0 C 61 % 92 % 0 % 995,8 hPa 0,0 l/m 8,8 km/h (2 Bft) 0 min 2 min 12,6 km/h (3 Bft)
17.07.2011 04:04 22,6 C 16,2 C 0,0 UV-I 0,0 C 61 % 92 % 0 % 995,5 hPa 0,0 l/m 7,2 km/h (2 Bft) 0 min 2 min 12,6 km/h (3 Bft)
17.07.2011 04:06 22,6 C 16,3 C 0,0 UV-I 0,0 C 61 % 92 % 0 % 995,5 hPa 0,1 l/m 7,6 km/h (2 Bft) 0 min 2 min 16,1 km/h (3 Bft)
17.07.2011 04:08 22,6 C 16,3 C 0,0 UV-I 0,0 C 61 % 92 % 0 % 995,5 hPa 0,1 l/m 7,2 km/h (2 Bft) 0 min 2 min 16,1 km/h (3 Bft)
17.07.2011 04:10 22,7 C 16,3 C 0,0 UV-I 0,0 C 61 % 92 % 0 % 995,5 hPa 0,0 l/m 6,8 km/h (2 Bft) 0 min 2 min 6,4 km/h (2 Bft)
17.07.2011 04:12 22,6 C 16,3 C 0,0 UV-I 0,0 C 61 % 92 % 0 % 995,5 hPa 0,0 l/m 6,0 km/h (2 Bft) 0 min 2 min 5,1 km/h (1 Bft)
17.07.2011 04:14 22,6 C 16,3 C 0,0 UV-I 0,0 C 61 % 92 % 0 % 995,5 hPa 0,0 l/m 5,2 km/h (1 Bft) 0 min 2 min 3,5 km/h (1 Bft)
17.07.2011 04:16 22,6 C 16,3 C 0,0 UV-I 0,0 C 61 % 92 % 0 % 995,5 hPa 0,0 l/m 4,4 km/h (1 Bft) 0 min 2 min 0,0 km/h (0 Bft)
17.07.2011 04:18 22,6 C 16,3 C 0,0 UV-I 0,0 C 61 % 92 % 0 % 995,5 hPa 0,0 l/m 3,2 km/h (1 Bft) 0 min 2 min 0,0 km/h (0 Bft)
17.07.2011 04:20 22,6 C 16,3 C 0,0 UV-I 0,0 C 61 % 92 % 0 % 995,5 hPa 0,1 l/m 3,2 km/h (1 Bft) 0 min 2 min 5,8 km/h (2 Bft)
17.07.2011 04:22 22,6 C 16,3 C 0,0 UV-I 0,0 C 61 % 92 % 0 % 995,5 hPa 0,0 l/m 2,4 km/h (1 Bft) 0 min 2 min 5,8 km/h (2 Bft)
17.07.2011 04:24 22,6 C 16,2 C 0,0 UV-I 0,0 C 61 % 92 % 0 % 995,5 hPa 0,0 l/m 1,6 km/h (1 Bft) 0 min 2 min 0,0 km/h (0 Bft)
17.07.2011 04:26 22,6 C 16,3 C 0,0 UV-I 0,0 C 61 % 92 % 0 % 995,5 hPa 0,1 l/m 1,2 km/h (1 Bft) 0 min 2 min 0,0 km/h (0 Bft)
17.07.2011 04:28 22,6 C 16,3 C 0,0 UV-I 0,0 C 61 % 92 % 0 % 995,5 hPa 0,0 l/m 1,2 km/h (1 Bft) 0 min 2 min 0,0 km/h (0 Bft)
17.07.2011 04:30 22,6 C 16,2 C 0,0 UV-I 0,0 C 61 % 92 % 0 % 995,5 hPa 0,1 l/m 1,2 km/h (1 Bft) 0 min 2 min 3,9 km/h (1 Bft)
17.07.2011 04:32 22,6 C 16,3 C 0,0 UV-I 0,0 C 61 % 92 % 0 % 995,5 hPa 0,3 l/m 1,6 km/h (1 Bft) 0 min 2 min 6,1 km/h (2 Bft)
17.07.2011 04:34 22,6 C 16,1 C 0,0 UV-I 0,0 C 61 % 92 % 0 % 995,5 hPa 0,0 l/m 3,2 km/h (1 Bft) 0 min 2 min 17,7 km/h (3 Bft)
17.07.2011 04:36 22,6 C 15,9 C 0,0 UV-I 0,0 C 61 % 91 % 0 % 995,5 hPa 0,4 l/m 5,2 km/h (1 Bft) 0 min 2 min 17,7 km/h (3 Bft)
17.07.2011 04:38 22,6 C 15,5 C 0,0 UV-I 0,0 C 61 % 90 % 0 % 995,5 hPa 0,2 l/m 6,8 km/h (2 Bft) 0 min 2 min 7,4 km/h (2 Bft)
17.07.2011 04:40 22,6 C 15,3 C 0,0 UV-I 0,0 C 61 % 90 % 0 % 995,5 hPa 0,0 l/m 8,8 km/h (2 Bft) 0 min 2 min 17,1 km/h (3 Bft)
17.07.2011 04:42 22,6 C 15,0 C 0,0 UV-I 0,0 C 61 % 90 % 0 % 995,5 hPa 0,1 l/m 10,0 km/h (2 Bft) 0 min 2 min 17,1 km/h (3 Bft)
17.07.2011 04:44 22,6 C 14,8 C 0,1 UV-I 0,0 C 61 % 90 % 0 % 996,4 hPa 0,0 l/m 11,2 km/h (2 Bft) 0 min 2 min 13,8 km/h (3 Bft)
17.07.2011 04:46 22,6 C 14,7 C 0,1 UV-I 0,0 C 61 % 90 % 0 % 996,4 hPa 0,1 l/m 10,0 km/h (2 Bft) 0 min 2 min 22,9 km/h (4 Bft)
17.07.2011 04:48 22,6 C 14,7 C 0,1 UV-I 0,0 C 61 % 90 % 0 % 996,4 hPa 0,0 l/m 9,6 km/h (2 Bft) 0 min 2 min 13,2 km/h (3 Bft)
17.07.2011 04:50 22,6 C 14,5 C 0,1 UV-I 0,0 C 61 % 90 % 0 % 996,4 hPa 0,0 l/m 9,2 km/h (2 Bft) 0 min 2 min 11,3 km/h (2 Bft)
17.07.2011 04:52 22,6 C 14,4 C 0,1 UV-I 0,0 C 61 % 90 % 0 % 996,4 hPa 0,0 l/m 8,0 km/h (2 Bft) 0 min 2 min 11,3 km/h (2 Bft)
17.07.2011 04:54 22,6 C 14,4 C 0,1 UV-I 0,0 C 61 % 91 % 0 % 996,4 hPa 0,2 l/m 6,8 km/h (2 Bft) 0 min 2 min 6,4 km/h (2 Bft)
17.07.2011 04:56 22,6 C 14,3 C 0,1 UV-I 0,0 C 61 % 91 % 0 % 996,4 hPa 0,0 l/m 6,0 km/h (2 Bft) 0 min 2 min 6,4 km/h (2 Bft)
17.07.2011 04:58 22,6 C 14,3 C 0,0 UV-I 0,0 C 61 % 91 % 0 % 996,4 hPa 0,0 l/m 5,6 km/h (1 Bft) 0 min 2 min 11,9 km/h (2 Bft)
17.07.2011 05:00 22,6 C 14,3 C 0,0 UV-I 0,0 C 61 % 91 % 0 % 996,4 hPa 0,0 l/m 6,0 km/h (2 Bft) 0 min 2 min 11,9 km/h (2 Bft)
17.07.2011 05:02 22,6 C 14,1 C 0,0 UV-I 0,0 C 61 % 91 % 0 % 996,4 hPa 0,0 l/m 5,6 km/h (1 Bft) 0 min 2 min 4,2 km/h (1 Bft)
17.07.2011 05:04 22,5 C 14,0 C 0,1 UV-I 0,0 C 61 % 91 % 0 % 996,4 hPa 0,1 l/m 6,4 km/h (2 Bft) 0 min 2 min 4,2 km/h (1 Bft)
17.07.2011 05:06 22,5 C 14,0 C 0,1 UV-I 0,0 C 61 % 91 % 0 % 996,4 hPa 0,0 l/m 5,2 km/h (1 Bft) 0 min 2 min 0,0 km/h (0 Bft)
17.07.2011 05:08 22,5 C 14,1 C 0,1 UV-I 0,0 C 61 % 91 % 0 % 996,4 hPa 0,0 l/m 5,6 km/h (1 Bft) 0 min 2 min 5,1 km/h (1 Bft)
17.07.2011 05:10 22,5 C 14,0 C 0,1 UV-I 0,0 C 61 % 91 % 0 % 996,4 hPa 0,0 l/m 4,0 km/h (1 Bft) 0 min 2 min 5,1 km/h (1 Bft)
17.07.2011 05:12 22,5 C 14,0 C 0,1 UV-I 0,0 C 61 % 91 % 0 % 996,4 hPa 0,0 l/m 4,0 km/h (1 Bft) 0 min 2 min 3,5 km/h (1 Bft)
17.07.2011 05:14 22,5 C 13,9 C 0,0 UV-I 0,0 C 61 % 92 % 0 % 996,4 hPa 0,0 l/m 2,8 km/h (1 Bft) 0 min 2 min 3,5 km/h (1 Bft)
17.07.2011 05:16 22,5 C 13,9 C 0,0 UV-I 0,0 C 61 % 92 % 0 % 996,4 hPa 0,0 l/m 2,4 km/h (1 Bft) 0 min 2 min 3,5 km/h (1 Bft)
17.07.2011 05:18 22,5 C 13,9 C 0,0 UV-I 0,0 C 61 % 92 % 0 % 996,4 hPa 0,0 l/m 2,0 km/h (1 Bft) 0 min 2 min 3,2 km/h (1 Bft)
17.07.2011 05:20 22,5 C 13,9 C 0,0 UV-I 0,0 C 61 % 92 % 0 % 996,4 hPa 0,0 l/m 2,0 km/h (1 Bft) 0 min 2 min 5,5 km/h (1 Bft)
17.07.2011 05:22 22,4 C 13,9 C 0,0 UV-I 0,0 C 60 % 92 % 0 % 996,4 hPa 0,0 l/m 1,6 km/h (1 Bft) 0 min 2 min 8,4 km/h (2 Bft)
17.07.2011 05:24 22,4 C 13,9 C 0,0 UV-I 0,0 C 61 % 92 % 0 % 996,8 hPa 0,0 l/m 1,2 km/h (1 Bft) 0 min 2 min 8,4 km/h (2 Bft)
17.07.2011 05:26 22,4 C 13,8 C 0,0 UV-I 0,0 C 61 % 91 % 0 % 996,8 hPa 0,0 l/m 2,0 km/h (1 Bft) 0 min 2 min 8,4 km/h (2 Bft)
17.07.2011 05:28 22,4 C 13,9 C 0,1 UV-I 0,0 C 60 % 92 % 0 % 996,8 hPa 0,1 l/m 2,0 km/h (1 Bft) 0 min 2 min 8,4 km/h (2 Bft)
17.07.2011 05:30 22,4 C 13,9 C 0,1 UV-I 0,0 C 60 % 92 % 0 % 996,8 hPa 0,0 l/m 2,0 km/h (1 Bft) 0 min 2 min 0,0 km/h (0 Bft)
17.07.2011 05:32 22,4 C 13,9 C 0,1 UV-I 0,0 C 60 % 92 % 0 % 996,8 hPa 0,0 l/m 2,0 km/h (1 Bft) 0 min 2 min 0,0 km/h (0 Bft)
17.07.2011 05:34 22,4 C 13,9 C 0,1 UV-I 0,0 C 60 % 92 % 0 % 996,8 hPa 0,0 l/m 1,6 km/h (1 Bft) 0 min 2 min 3,2 km/h (1 Bft)
17.07.2011 05:36 22,4 C 13,8 C 0,1 UV-I 0,0 C 61 % 92 % 0 % 996,8 hPa 0,0 l/m 1,6 km/h (1 Bft) 0 min 2 min 3,2 km/h (1 Bft)
17.07.2011 05:38 22,4 C 13,9 C 0,1 UV-I 0,0 C 60 % 92 % 0 % 996,8 hPa 0,0 l/m 1,2 km/h (1 Bft) 0 min 2 min 0,0 km/h (0 Bft)
17.07.2011 05:40 22,4 C 13,9 C 0,1 UV-I 0,0 C 60 % 92 % 0 % 996,8 hPa 0,0 l/m 1,2 km/h (1 Bft) 0 min 2 min 0,0 km/h (0 Bft)
17.07.2011 05:42 22,4 C 13,8 C 0,1 UV-I 0,0 C 60 % 92 % 0 % 996,8 hPa 0,0 l/m 0,8 km/h (0 Bft) 0 min 2 min 0,0 km/h (0 Bft)
17.07.2011 05:44 22,2 C 13,8 C 0,1 UV-I 0,0 C 60 % 92 % 0 % 996,7 hPa 0,0 l/m 0,8 km/h (0 Bft) 0 min 2 min 0,0 km/h (0 Bft)
17.07.2011 05:46 22,2 C 13,8 C 0,1 UV-I 0,0 C 61 % 92 % 0 % 996,7 hPa 0,0 l/m 0,4 km/h (0 Bft) 0 min 2 min 0,0 km/h (0 Bft)
17.07.2011 05:48 22,2 C 13,8 C 0,1 UV-I 0,0 C 61 % 92 % 0 % 996,7 hPa 0,0 l/m 0,4 km/h (0 Bft) 0 min 2 min 0,0 km/h (0 Bft)
17.07.2011 05:50 22,3 C 13,8 C 0,1 UV-I 0,0 C 61 % 92 % 0 % 996,7 hPa 0,0 l/m 0,0 km/h (0 Bft) 0 min 2 min 4,5 km/h (1 Bft)
17.07.2011 05:52 22,3 C 13,7 C 0,1 UV-I 0,0 C 61 % 92 % 0 % 996,7 hPa 0,0 l/m 0,4 km/h (0 Bft) 0 min 2 min 4,5 km/h (1 Bft)
17.07.2011 05:54 22,3 C 13,8 C 0,1 UV-I 0,0 C 61 % 92 % 0 % 996,7 hPa 0,0 l/m 0,4 km/h (0 Bft) 0 min 2 min 0,0 km/h (0 Bft)
17.07.2011 05:56 22,3 C 13,8 C 0,1 UV-I 0,0 C 61 % 92 % 0 % 996,7 hPa 0,0 l/m 0,8 km/h (0 Bft) 0 min 2 min 0,0 km/h (0 Bft)
17.07.2011 05:58 22,3 C 13,8 C 0,1 UV-I 0,0 C 61 % 92 % 0 % 996,7 hPa 0,0 l/m 0,8 km/h (0 Bft) 0 min 2 min 0,0 km/h (0 Bft)
17.07.2011 06:00 22,2 C 13,7 C 0,1 UV-I 0,0 C 61 % 92 % 0 % 996,7 hPa 0,0 l/m 1,2 km/h (1 Bft) 0 min 2 min 5,1 km/h (1 Bft)
17.07.2011 06:02 22,2 C 13,8 C 0,1 UV-I 0,0 C 61 % 92 % 0 % 996,7 hPa 0,0 l/m 1,2 km/h (1 Bft) 0 min 2 min 5,1 km/h (1 Bft)
17.07.2011 06:04 22,2 C 13,7 C 0,1 UV-I 0,0 C 61 % 92 % 0 % 996,9 hPa 0,0 l/m 1,2 km/h (1 Bft) 0 min 2 min 0,0 km/h (0 Bft)
17.07.2011 06:06 22,2 C 13,7 C 0,1 UV-I 0,0 C 61 % 92 % 0 % 996,9 hPa 0,0 l/m 1,2 km/h (1 Bft) 0 min 2 min 4,8 km/h (1 Bft)
17.07.2011 06:08 22,2 C 13,7 C 0,1 UV-I 0,0 C 61 % 92 % 0 % 996,9 hPa 0,0 l/m 1,2 km/h (1 Bft) 0 min 2 min 4,8 km/h (1 Bft)
17.07.2011 06:10 22,2 C 13,7 C 0,1 UV-I 0,0 C 60 % 92 % 0 % 996,9 hPa 0,0 l/m 1,2 km/h (1 Bft) 0 min 2 min 0,0 km/h (0 Bft)
17.07.2011 06:12 22,2 C 13,7 C 0,1 UV-I 0,0 C 61 % 92 % 0 % 996,9 hPa 0,0 l/m 0,8 km/h (0 Bft) 0 min 2 min 3,9 km/h (1 Bft)
17.07.2011 06:14 22,2 C 13,7 C 0,1 UV-I 0,0 C 61 % 92 % 0 % 996,9 hPa 0,0 l/m 1,2 km/h (1 Bft) 0 min 2 min 5,8 km/h (2 Bft)
17.07.2011 06:16 22,2 C 13,7 C 0,1 UV-I 0,0 C 60 % 92 % 0 % 996,9 hPa 0,0 l/m 1,2 km/h (1 Bft) 0 min 2 min 5,8 km/h (2 Bft)
17.07.2011 06:18 22,2 C 13,9 C 0,1 UV-I 0,0 C 60 % 92 % 0 % 996,9 hPa 0,0 l/m 0,4 km/h (0 Bft) 0 min 2 min 0,0 km/h (0 Bft)
17.07.2011 06:20 22,2 C 13,7 C 0,1 UV-I 0,0 C 60 % 92 % 0 % 996,9 hPa 0,0 l/m 0,8 km/h (0 Bft) 0 min 2 min 0,0 km/h (0 Bft)
17.07.2011 06:22 22,2 C 13,7 C 0,1 UV-I 0,0 C 60 % 92 % 0 % 996,9 hPa 0,0 l/m 0,8 km/h (0 Bft) 0 min 2 min 0,0 km/h (0 Bft)
17.07.2011 06:24 22,2 C 13,8 C 0,1 UV-I 0,0 C 61 % 93 % 0 % 997,2 hPa 0,0 l/m 0,8 km/h (0 Bft) 0 min 2 min 0,0 km/h (0 Bft)
17.07.2011 06:26 22,2 C 13,9 C 0,1 UV-I 0,0 C 60 % 93 % 0 % 997,2 hPa 0,0 l/m 0,4 km/h (0 Bft) 0 min 2 min 3,5 km/h (1 Bft)
17.07.2011 06:28 22,2 C 13,8 C 0,2 UV-I 0,0 C 60 % 93 % 0 % 997,2 hPa 0,0 l/m 0,4 km/h (0 Bft) 0 min 2 min 3,5 km/h (1 Bft)
17.07.2011 06:30 22,2 C 13,8 C 0,2 UV-I 0,0 C 60 % 93 % 0 % 997,2 hPa 0,0 l/m 0,4 km/h (0 Bft) 0 min 2 min 0,0 km/h (0 Bft)
17.07.2011 06:32 22,2 C 13,8 C 0,2 UV-I 0,0 C 60 % 92 % 0 % 997,2 hPa 0,0 l/m 0,4 km/h (0 Bft) 0 min 2 min 0,0 km/h (0 Bft)
17.07.2011 06:34 22,2 C 13,9 C 0,2 UV-I 0,0 C 60 % 92 % 0 % 997,2 hPa 0,0 l/m 0,0 km/h (0 Bft) 0 min 2 min 0,0 km/h (0 Bft)
17.07.2011 06:36 22,2 C 13,8 C 0,2 UV-I 0,0 C 60 % 92 % 0 % 997,2 hPa 0,0 l/m 0,4 km/h (0 Bft) 0 min 2 min 0,0 km/h (0 Bft)
17.07.2011 06:38 22,2 C 13,9 C 0,2 UV-I 0,0 C 60 % 93 % 0 % 997,2 hPa 0,0 l/m 0,4 km/h (0 Bft) 0 min 0 min 4,8 km/h (1 Bft)
17.07.2011 06:40 22,2 C 13,9 C 0,2 UV-I 0,0 C 60 % 93 % 0 % 997,2 hPa 0,0 l/m 0,4 km/h (0 Bft) 0 min 0 min 4,8 km/h (1 Bft)
17.07.2011 06:42 22,2 C 13,9 C 0,2 UV-I 0,0 C 60 % 93 % 0 % 997,2 hPa 0,0 l/m 0,8 km/h (0 Bft) 0 min 2 min 4,8 km/h (1 Bft)
17.07.2011 06:44 22,2 C 13,9 C 0,2 UV-I 0,0 C 60 % 93 % 0 % 997,1 hPa 0,0 l/m 0,8 km/h (0 Bft) 0 min 2 min 4,8 km/h (1 Bft)
17.07.2011 06:46 22,2 C 13,9 C 0,2 UV-I 0,0 C 60 % 93 % 0 % 997,1 hPa 0,0 l/m 1,2 km/h (1 Bft) 0 min 2 min 4,2 km/h (1 Bft)
17.07.2011 06:48 22,2 C 13,9 C 0,2 UV-I 0,0 C 60 % 93 % 0 % 997,1 hPa 0,0 l/m 1,2 km/h (1 Bft) 0 min 2 min 3,5 km/h (1 Bft)
17.07.2011 06:50 22,2 C 13,8 C 0,2 UV-I 0,0 C 60 % 93 % 0 % 997,1 hPa 0,0 l/m 0,8 km/h (0 Bft) 0 min 2 min 3,5 km/h (1 Bft)
17.07.2011 06:52 22,2 C 13,8 C 0,2 UV-I 0,0 C 60 % 93 % 0 % 997,1 hPa 0,0 l/m 1,2 km/h (1 Bft) 0 min 2 min 3,9 km/h (1 Bft)
17.07.2011 06:54 22,2 C 13,8 C 0,2 UV-I 0,0 C 60 % 93 % 0 % 997,1 hPa 0,0 l/m 1,2 km/h (1 Bft) 0 min 2 min 3,9 km/h (1 Bft)
17.07.2011 06:56 22,2 C 13,9 C 0,2 UV-I 0,0 C 60 % 93 % 0 % 997,1 hPa 0,0 l/m 1,6 km/h (1 Bft) 0 min 2 min 7,4 km/h (2 Bft)
17.07.2011 06:58 22,2 C 13,9 C 0,2 UV-I 0,0 C 60 % 93 % 0 % 997,1 hPa 0,0 l/m 2,0 km/h (1 Bft) 0 min 2 min 7,4 km/h (2 Bft)
17.07.2011 07:00 22,1 C 13,9 C 0,2 UV-I 0,0 C 60 % 93 % 0 % 997,1 hPa 0,0 l/m 1,6 km/h (1 Bft) 0 min 2 min 3,2 km/h (1 Bft)
17.07.2011 07:02 22,1 C 13,9 C 0,2 UV-I 0,0 C 60 % 93 % 0 % 997,1 hPa 0,0 l/m 2,0 km/h (1 Bft) 0 min 2 min 5,8 km/h (2 Bft)
17.07.2011 07:04 22,1 C 13,9 C 0,3 UV-I 0,0 C 60 % 93 % 0 % 997,1 hPa 0,0 l/m 2,0 km/h (1 Bft) 0 min 2 min 5,8 km/h (2 Bft)
17.07.2011 07:06 22,1 C 13,9 C 0,3 UV-I 0,0 C 60 % 93 % 0 % 997,1 hPa 0,0 l/m 2,0 km/h (1 Bft) 0 min 2 min 0,0 km/h (0 Bft)
17.07.2011 07:08 22,1 C 13,9 C 0,3 UV-I 0,0 C 60 % 93 % 0 % 997,1 hPa 0,0 l/m 1,6 km/h (1 Bft) 0 min 0 min 4,8 km/h (1 Bft)
17.07.2011 07:10 22,1 C 14,0 C 0,3 UV-I 0,0 C 60 % 93 % 0 % 997,1 hPa 0,0 l/m 1,6 km/h (1 Bft) 0 min 0 min 4,8 km/h (1 Bft)
17.07.2011 07:12 22,1 C 14,0 C 0,3 UV-I 0,0 C 61 % 93 % 0 % 997,1 hPa 0,0 l/m 1,6 km/h (1 Bft) 0 min 2 min 0,0 km/h (0 Bft)
17.07.2011 07:14 22,1 C 14,0 C 0,3 UV-I 0,0 C 60 % 93 % 0 % 997,1 hPa 0,0 l/m 1,2 km/h (1 Bft) 0 min 2 min 4,2 km/h (1 Bft)
17.07.2011 07:16 22,1 C 14,1 C 0,3 UV-I 0,0 C 60 % 93 % 0 % 997,1 hPa 0,0 l/m 1,2 km/h (1 Bft) 0 min 2 min 4,2 km/h (1 Bft)
17.07.2011 07:18 22,1 C 14,0 C 0,3 UV-I 0,0 C 60 % 93 % 0 % 997,1 hPa 0,0 l/m 1,2 km/h (1 Bft) 0 min 2 min 0,0 km/h (0 Bft)
17.07.2011 07:20 22,1 C 14,0 C 0,3 UV-I 0,0 C 60 % 93 % 0 % 997,1 hPa 0,0 l/m 0,8 km/h (0 Bft) 0 min 0 min 3,5 km/h (1 Bft)
17.07.2011 07:22 22,1 C 14,0 C 0,3 UV-I 0,0 C 60 % 93 % 0 % 997,1 hPa 0,0 l/m 1,6 km/h (1 Bft) 0 min 2 min 4,5 km/h (1 Bft)
17.07.2011 07:24 22,1 C 14,0 C 0,4 UV-I 0,0 C 60 % 93 % 0 % 997,1 hPa 0,0 l/m 1,6 km/h (1 Bft) 0 min 2 min 6,4 km/h (2 Bft)
17.07.2011 07:26 22,1 C 14,0 C 0,4 UV-I 0,0 C 60 % 93 % 0 % 997,1 hPa 0,0 l/m 2,0 km/h (1 Bft) 0 min 0 min 9,0 km/h (2 Bft)
17.07.2011 07:28 22,1 C 14,0 C 0,6 UV-I 0,0 C 60 % 93 % 0 % 997,1 hPa 0,0 l/m 2,0 km/h (1 Bft) 0 min 0 min 9,0 km/h (2 Bft)
17.07.2011 07:30 22,1 C 14,0 C 0,6 UV-I 0,0 C 60 % 93 % 0 % 997,1 hPa 0,0 l/m 2,0 km/h (1 Bft) 0 min 2 min 3,2 km/h (1 Bft)
17.07.2011 07:32 22,1 C 14,0 C 0,6 UV-I 0,0 C 60 % 93 % 0 % 997,1 hPa 0,0 l/m 1,6 km/h (1 Bft) 0 min 2 min 5,5 km/h (1 Bft)
17.07.2011 07:34 22,0 C 14,1 C 0,8 UV-I 0,0 C 61 % 93 % 0 % 997,1 hPa 0,0 l/m 1,6 km/h (1 Bft) 0 min 2 min 5,5 km/h (1 Bft)
17.07.2011 07:36 22,0 C 14,0 C 0,8 UV-I 0,0 C 61 % 93 % 0 % 997,1 hPa 0,0 l/m 1,2 km/h (1 Bft) 0 min 2 min 0,0 km/h (0 Bft)
17.07.2011 07:38 22,1 C 14,0 C 1,0 UV-I 0,0 C 61 % 93 % 0 % 997,1 hPa 0,0 l/m 0,4 km/h (0 Bft) 0 min 2 min 0,0 km/h (0 Bft)
17.07.2011 07:40 22,1 C 14,0 C 1,0 UV-I 0,0 C 61 % 93 % 0 % 997,1 hPa 0,0 l/m 0,4 km/h (0 Bft) 0 min 2 min 0,0 km/h (0 Bft)
17.07.2011 07:42 22,1 C 14,1 C 1,0 UV-I 0,0 C 61 % 93 % 0 % 997,1 hPa 0,0 l/m 0,8 km/h (0 Bft) 0 min 0 min 0,0 km/h (0 Bft)
17.07.2011 07:44 22,1 C 14,1 C 1,0 UV-I 0,0 C 61 % 93 % 0 % 997,3 hPa 0,0 l/m 0,4 km/h (0 Bft) 0 min 0 min 0,0 km/h (0 Bft)
17.07.2011 07:46 22,0 C 14,3 C 1,0 UV-I 0,0 C 61 % 93 % 0 % 997,3 hPa 0,0 l/m 0,4 km/h (0 Bft) 0 min 2 min 0,0 km/h (0 Bft)
17.07.2011 07:48 22,1 C 14,3 C 0,9 UV-I 0,1 C 61 % 93 % 3 % 997,3 hPa 0,0 l/m 0,4 km/h (0 Bft) 0 min 2 min 4,2 km/h (1 Bft)
17.07.2011 07:50 22,1 C 14,3 C 0,9 UV-I 0,2 C 61 % 93 % 6 % 997,3 hPa 0,0 l/m 0,4 km/h (0 Bft) 0 min 2 min 4,2 km/h (1 Bft)
17.07.2011 07:52 22,1 C 14,3 C 0,9 UV-I 0,3 C 60 % 93 % 9 % 997,3 hPa 0,0 l/m 0,4 km/h (0 Bft) 0 min 2 min 0,0 km/h (0 Bft)
17.07.2011 07:54 22,1 C 14,3 C 0,8 UV-I 0,3 C 61 % 93 % 9 % 997,3 hPa 0,0 l/m 0,8 km/h (0 Bft) 0 min 0 min 12,9 km/h (3 Bft)
17.07.2011 07:56 22,1 C 14,3 C 0,8 UV-I 0,3 C 61 % 93 % 9 % 997,3 hPa 0,0 l/m 1,2 km/h (1 Bft) 0 min 2 min 12,9 km/h (3 Bft)
17.07.2011 07:58 22,1 C 14,4 C 0,8 UV-I 0,3 C 61 % 93 % 9 % 997,3 hPa 0,0 l/m 1,2 km/h (1 Bft) 0 min 2 min 0,0 km/h (0 Bft)
17.07.2011 08:00 22,1 C 14,5 C 0,8 UV-I 0,2 C 61 % 93 % 6 % 997,3 hPa 0,0 l/m 2,0 km/h (1 Bft) 0 min 2 min 10,9 km/h (2 Bft)
17.07.2011 08:02 22,1 C 14,5 C 0,8 UV-I 0,2 C 61 % 93 % 6 % 997,3 hPa 0,0 l/m 2,0 km/h (1 Bft) 0 min 2 min 10,9 km/h (2 Bft)
17.07.2011 08:04 22,1 C 14,4 C 1,0 UV-I 0,4 C 61 % 93 % 11 % 997,3 hPa 0,0 l/m 2,4 km/h (1 Bft) 0 min 2 min 0,0 km/h (0 Bft)
17.07.2011 08:06 22,1 C 14,4 C 1,0 UV-I 0,4 C 61 % 93 % 11 % 997,3 hPa 0,0 l/m 1,2 km/h (1 Bft) 0 min 2 min 3,2 km/h (1 Bft)
17.07.2011 08:08 22,1 C 14,4 C 1,3 UV-I 0,4 C 61 % 93 % 11 % 997,3 hPa 0,0 l/m 1,6 km/h (1 Bft) 0 min 0 min 4,8 km/h (1 Bft)
17.07.2011 08:10 22,1 C 14,4 C 1,3 UV-I 0,4 C 60 % 93 % 11 % 997,3 hPa 0,0 l/m 1,6 km/h (1 Bft) 0 min 0 min 4,8 km/h (1 Bft)
17.07.2011 08:12 22,1 C 14,4 C 1,3 UV-I 0,3 C 61 % 93 % 9 % 997,3 hPa 0,0 l/m 1,2 km/h (1 Bft) 0 min 2 min 0,0 km/h (0 Bft)
17.07.2011 08:14 22,1 C 14,5 C 1,4 UV-I 0,2 C 61 % 93 % 6 % 997,3 hPa 0,0 l/m 0,8 km/h (0 Bft) 0 min 2 min 0,0 km/h (0 Bft)
17.07.2011 08:16 22,1 C 14,4 C 1,4 UV-I 0,2 C 61 % 92 % 6 % 997,3 hPa 0,0 l/m 0,8 km/h (0 Bft) 0 min 2 min 0,0 km/h (0 Bft)
17.07.2011 08:18 22,1 C 14,5 C 1,5 UV-I 0,3 C 61 % 93 % 9 % 997,3 hPa 0,0 l/m 1,2 km/h (1 Bft) 0 min 2 min 3,2 km/h (1 Bft)
17.07.2011 08:20 22,1 C 14,5 C 1,5 UV-I 1,0 C 61 % 93 % 29 % 997,3 hPa 0,0 l/m 0,8 km/h (0 Bft) 0 min 0 min 3,2 km/h (1 Bft)
17.07.2011 08:22 22,1 C 14,6 C 1,5 UV-I 1,8 C 61 % 93 % 51 % 997,3 hPa 0,0 l/m 0,8 km/h (0 Bft) 0 min 2 min 0,0 km/h (0 Bft)
17.07.2011 08:24 22,2 C 14,7 C 1,6 UV-I 2,3 C 60 % 93 % 66 % 997,4 hPa 0,0 l/m 0,4 km/h (0 Bft) 0 min 2 min 0,0 km/h (0 Bft)
17.07.2011 08:26 22,2 C 14,7 C 1,6 UV-I 3,1 C 61 % 93 % 89 % 997,4 hPa 0,0 l/m 0,8 km/h (0 Bft) 2 min 2 min 8,7 km/h (2 Bft)
17.07.2011 08:28 22,1 C 14,8 C 1,8 UV-I 3,8 C 60 % 93 % 100 % 997,4 hPa 0,0 l/m 0,8 km/h (0 Bft) 2 min 2 min 8,7 km/h (2 Bft)
17.07.2011 08:30 22,2 C 14,8 C 1,8 UV-I 4,1 C 60 % 93 % 100 % 997,4 hPa 0,0 l/m 0,8 km/h (0 Bft) 2 min 2 min 7,4 km/h (2 Bft)
17.07.2011 08:32 22,2 C 14,8 C 1,8 UV-I 4,6 C 60 % 93 % 100 % 997,4 hPa 0,0 l/m 1,2 km/h (1 Bft) 2 min 2 min 4,5 km/h (1 Bft)
17.07.2011 08:34 22,2 C 14,9 C 2,0 UV-I 4,7 C 60 % 93 % 100 % 997,4 hPa 0,0 l/m 1,6 km/h (1 Bft) 2 min 2 min 5,1 km/h (1 Bft)
17.07.2011 08:36 22,2 C 15,1 C 2,0 UV-I 4,5 C 60 % 93 % 100 % 997,4 hPa 0,0 l/m 2,0 km/h (1 Bft) 2 min 2 min 5,8 km/h (2 Bft)
17.07.2011 08:38 22,2 C 15,1 C 1,8 UV-I 4,3 C 60 % 93 % 100 % 997,4 hPa 0,0 l/m 2,4 km/h (1 Bft) 2 min 0 min 5,8 km/h (2 Bft)
17.07.2011 08:40 22,2 C 15,1 C 1,8 UV-I 3,9 C 60 % 93 % 100 % 997,4 hPa 0,0 l/m 2,0 km/h (1 Bft) 2 min 0 min 4,8 km/h (1 Bft)
17.07.2011 08:42 22,2 C 15,2 C 1,8 UV-I 3,6 C 60 % 93 % 100 % 997,4 hPa 0,0 l/m 2,4 km/h (1 Bft) 2 min 0 min 4,8 km/h (1 Bft)
17.07.2011 08:44 22,2 C 15,3 C 1,6 UV-I 3,2 C 60 % 93 % 91 % 997,3 hPa 0,0 l/m 2,0 km/h (1 Bft) 2 min 2 min 3,9 km/h (1 Bft)
17.07.2011 08:46 22,2 C 15,3 C 1,6 UV-I 3,1 C 60 % 93 % 89 % 997,3 hPa 0,0 l/m 2,0 km/h (1 Bft) 2 min 2 min 3,5 km/h (1 Bft)
17.07.2011 08:48 22,2 C 15,3 C 2,2 UV-I 3,3 C 60 % 93 % 94 % 997,3 hPa 0,0 l/m 2,0 km/h (1 Bft) 2 min 2 min 7,4 km/h (2 Bft)
17.07.2011 08:50 22,2 C 15,5 C 2,2 UV-I 3,1 C 60 % 93 % 89 % 997,3 hPa 0,0 l/m 2,0 km/h (1 Bft) 2 min 0 min 7,4 km/h (2 Bft)
17.07.2011 08:52 22,2 C 15,4 C 2,2 UV-I 3,2 C 60 % 93 % 91 % 997,3 hPa 0,0 l/m 2,0 km/h (1 Bft) 2 min 0 min 3,5 km/h (1 Bft)
17.07.2011 08:54 22,2 C 15,5 C 1,7 UV-I 3,1 C 60 % 92 % 89 % 997,3 hPa 0,0 l/m 1,6 km/h (1 Bft) 2 min 2 min 3,5 km/h (1 Bft)
17.07.2011 08:56 22,2 C 15,6 C 1,7 UV-I 3,0 C 60 % 92 % 86 % 997,3 hPa 0,0 l/m 2,0 km/h (1 Bft) 2 min 0 min 6,8 km/h (2 Bft)
17.07.2011 08:58 22,3 C 15,7 C 2,6 UV-I 3,0 C 60 % 92 % 86 % 997,3 hPa 0,0 l/m 2,0 km/h (1 Bft) 2 min 0 min 6,8 km/h (2 Bft)
17.07.2011 09:00 22,3 C 15,7 C 2,6 UV-I 3,3 C 60 % 92 % 94 % 997,3 hPa 0,0 l/m 2,8 km/h (1 Bft) 2 min 0 min 6,1 km/h (2 Bft)
17.07.2011 09:02 22,3 C 15,8 C 2,6 UV-I 3,6 C 60 % 92 % 100 % 997,3 hPa 0,0 l/m 3,2 km/h (1 Bft) 2 min 0 min 6,1 km/h (2 Bft)
17.07.2011 09:04 22,3 C 16,0 C 3,3 UV-I 3,8 C 60 % 91 % 100 % 997,4 hPa 0,0 l/m 4,0 km/h (1 Bft) 2 min 0 min 6,4 km/h (2 Bft)
17.07.2011 09:06 22,2 C 16,0 C 3,3 UV-I 4,0 C 60 % 91 % 100 % 997,4 hPa 0,0 l/m 5,2 km/h (1 Bft) 2 min 0 min 3,9 km/h (1 Bft)
17.07.2011 09:08 22,2 C 16,1 C 5,8 UV-I 4,2 C 60 % 91 % 100 % 997,4 hPa 0,0 l/m 5,6 km/h (1 Bft) 2 min 0 min 6,4 km/h (2 Bft)
17.07.2011 09:10 22,2 C 16,2 C 5,8 UV-I 4,5 C 60 % 91 % 100 % 997,4 hPa 0,0 l/m 5,6 km/h (1 Bft) 2 min 0 min 7,1 km/h (2 Bft)
17.07.2011 09:12 22,4 C 16,3 C 5,8 UV-I 4,8 C 60 % 91 % 100 % 997,4 hPa 0,0 l/m 4,4 km/h (1 Bft) 2 min 0 min 7,1 km/h (2 Bft)
17.07.2011 09:14 22,4 C 16,4 C 7,2 UV-I 5,2 C 60 % 90 % 100 % 997,4 hPa 0,0 l/m 5,2 km/h (1 Bft) 2 min 0 min 6,1 km/h (2 Bft)
17.07.2011 09:16 22,4 C 16,5 C 7,2 UV-I 5,3 C 60 % 90 % 100 % 997,4 hPa 0,0 l/m 4,4 km/h (1 Bft) 2 min 0 min 11,3 km/h (2 Bft)
17.07.2011 09:18 22,4 C 16,7 C 5,3 UV-I 5,2 C 60 % 90 % 100 % 997,4 hPa 0,0 l/m 4,8 km/h (1 Bft) 2 min 0 min 12,9 km/h (3 Bft)
17.07.2011 09:20 22,4 C 16,5 C 5,3 UV-I 5,2 C 60 % 89 % 100 % 997,4 hPa 0,0 l/m 4,8 km/h (1 Bft) 2 min 0 min 12,9 km/h (3 Bft)
17.07.2011 09:22 22,4 C 16,6 C 5,3 UV-I 4,4 C 60 % 89 % 100 % 997,4 hPa 0,0 l/m 4,4 km/h (1 Bft) 2 min 0 min 6,8 km/h (2 Bft)
17.07.2011 09:24 22,4 C 16,5 C 2,1 UV-I 3,9 C 60 % 89 % 100 % 997,4 hPa 0,0 l/m 5,2 km/h (1 Bft) 2 min 0 min 9,3 km/h (2 Bft)
17.07.2011 09:26 22,4 C 16,6 C 2,1 UV-I 3,6 C 60 % 89 % 100 % 997,4 hPa 0,0 l/m 5,6 km/h (1 Bft) 2 min 0 min 9,3 km/h (2 Bft)
17.07.2011 09:28 22,4 C 16,6 C 4,1 UV-I 3,2 C 60 % 89 % 91 % 997,4 hPa 0,0 l/m 5,6 km/h (1 Bft) 2 min 0 min 5,8 km/h (2 Bft)
17.07.2011 09:30 22,4 C 16,7 C 4,1 UV-I 3,7 C 60 % 89 % 100 % 997,4 hPa 0,0 l/m 5,2 km/h (1 Bft) 2 min 0 min 12,2 km/h (2 Bft)
17.07.2011 09:32 22,4 C 16,7 C 4,1 UV-I 4,2 C 60 % 88 % 100 % 997,4 hPa 0,0 l/m 6,0 km/h (2 Bft) 2 min 0 min 12,2 km/h (2 Bft)
17.07.2011 09:34 22,4 C 16,7 C 5,0 UV-I 4,0 C 60 % 87 % 100 % 997,4 hPa 0,0 l/m 6,4 km/h (2 Bft) 2 min 0 min 9,7 km/h (2 Bft)
17.07.2011 09:36 22,4 C 16,7 C 5,0 UV-I 3,8 C 59 % 87 % 100 % 997,4 hPa 0,0 l/m 6,8 km/h (2 Bft) 2 min 0 min 9,0 km/h (2 Bft)
17.07.2011 09:38 22,4 C 16,7 C 4,0 UV-I 3,5 C 59 % 87 % 100 % 997,4 hPa 0,0 l/m 6,8 km/h (2 Bft) 2 min 0 min 9,0 km/h (2 Bft)
17.07.2011 09:40 22,5 C 16,8 C 4,0 UV-I 3,5 C 59 % 87 % 100 % 997,4 hPa 0,0 l/m 8,0 km/h (2 Bft) 2 min 0 min 14,5 km/h (3 Bft)
17.07.2011 09:42 22,5 C 16,9 C 4,0 UV-I 3,6 C 59 % 86 % 100 % 997,4 hPa 0,0 l/m 8,0 km/h (2 Bft) 2 min 0 min 14,5 km/h (3 Bft)
17.07.2011 09:44 22,5 C 16,8 C 4,5 UV-I 3,6 C 59 % 86 % 100 % 997,8 hPa 0,0 l/m 8,0 km/h (2 Bft) 2 min 0 min 9,7 km/h (2 Bft)
17.07.2011 09:46 22,5 C 16,9 C 4,5 UV-I 3,2 C 59 % 86 % 91 % 997,8 hPa 0,0 l/m 8,0 km/h (2 Bft) 2 min 0 min 6,4 km/h (2 Bft)
17.07.2011 09:48 22,5 C 16,8 C 2,8 UV-I 3,0 C 59 % 86 % 86 % 997,8 hPa 0,0 l/m 7,6 km/h (2 Bft) 2 min 0 min 10,3 km/h (2 Bft)
17.07.2011 09:50 22,5 C 16,9 C 2,8 UV-I 2,7 C 59 % 85 % 77 % 997,8 hPa 0,0 l/m 7,2 km/h (2 Bft) 0 min 0 min 10,3 km/h (2 Bft)
17.07.2011 09:52 22,6 C 16,8 C 2,8 UV-I 2,6 C 59 % 85 % 74 % 997,8 hPa 0,0 l/m 6,8 km/h (2 Bft) 0 min 0 min 6,1 km/h (2 Bft)
17.07.2011 09:54 22,6 C 16,8 C 2,4 UV-I 2,5 C 59 % 86 % 71 % 997,8 hPa 0,0 l/m 5,6 km/h (1 Bft) 0 min 0 min 6,1 km/h (2 Bft)
17.07.2011 09:56 22,6 C 16,9 C 2,4 UV-I 2,3 C 59 % 85 % 66 % 997,8 hPa 0,0 l/m 5,6 km/h (1 Bft) 0 min 0 min 12,2 km/h (2 Bft)
17.07.2011 09:58 22,6 C 16,8 C 2,6 UV-I 2,3 C 59 % 84 % 66 % 997,8 hPa 0,0 l/m 5,6 km/h (1 Bft) 0 min 0 min 12,2 km/h (2 Bft)
17.07.2011 10:00 22,6 C 16,8 C 2,6 UV-I 2,4 C 59 % 84 % 69 % 997,8 hPa 0,0 l/m 5,2 km/h (1 Bft) 0 min 0 min 7,1 km/h (2 Bft)
17.07.2011 10:02 22,6 C 16,8 C 2,6 UV-I 2,4 C 59 % 84 % 69 % 997,8 hPa 0,0 l/m 4,8 km/h (1 Bft) 0 min 0 min 6,8 km/h (2 Bft)
17.07.2011 10:04 22,6 C 16,8 C 2,7 UV-I 2,4 C 58 % 84 % 69 % 997,7 hPa 0,0 l/m 5,2 km/h (1 Bft) 0 min 0 min 6,1 km/h (2 Bft)
17.07.2011 10:06 22,6 C 16,8 C 2,7 UV-I 2,3 C 58 % 83 % 66 % 997,7 hPa 0,0 l/m 6,0 km/h (2 Bft) 0 min 0 min 6,4 km/h (2 Bft)
17.07.2011 10:08 22,6 C 16,7 C 2,2 UV-I 2,3 C 58 % 82 % 66 % 997,7 hPa 0,0 l/m 6,0 km/h (2 Bft) 0 min 0 min 8,7 km/h (2 Bft)
17.07.2011 10:10 22,6 C 16,7 C 2,2 UV-I 2,1 C 58 % 82 % 60 % 997,7 hPa 0,0 l/m 6,4 km/h (2 Bft) 0 min 0 min 9,0 km/h (2 Bft)
17.07.2011 10:12 22,6 C 16,6 C 2,2 UV-I 2,0 C 58 % 81 % 57 % 997,7 hPa 0,0 l/m 7,6 km/h (2 Bft) 0 min 0 min 12,2 km/h (2 Bft)
17.07.2011 10:14 22,6 C 16,6 C 2,0 UV-I 1,8 C 58 % 81 % 51 % 997,7 hPa 0,0 l/m 8,0 km/h (2 Bft) 0 min 0 min 12,2 km/h (2 Bft)
17.07.2011 10:16 22,6 C 16,7 C 2,0 UV-I 1,5 C 58 % 81 % 43 % 997,7 hPa 0,0 l/m 8,0 km/h (2 Bft) 0 min 0 min 8,4 km/h (2 Bft)
17.07.2011 10:18 22,7 C 16,5 C 2,2 UV-I 1,7 C 58 % 82 % 49 % 997,7 hPa 0,0 l/m 7,6 km/h (2 Bft) 0 min 0 min 7,4 km/h (2 Bft)
17.07.2011 10:20 22,7 C 16,5 C 2,2 UV-I 1,7 C 58 % 80 % 49 % 997,7 hPa 0,0 l/m 7,6 km/h (2 Bft) 0 min 0 min 12,9 km/h (3 Bft)
17.07.2011 10:22 22,7 C 16,5 C 2,2 UV-I 1,7 C 57 % 81 % 49 % 997,7 hPa 0,0 l/m 6,8 km/h (2 Bft) 0 min 0 min 12,9 km/h (3 Bft)
17.07.2011 10:24 22,7 C 16,5 C 2,2 UV-I 1,7 C 57 % 81 % 49 % 997,7 hPa 0,0 l/m 5,6 km/h (1 Bft) 0 min 0 min 7,4 km/h (2 Bft)
17.07.2011 10:26 22,7 C 16,5 C 2,2 UV-I 1,6 C 57 % 79 % 46 % 997,7 hPa 0,0 l/m 6,0 km/h (2 Bft) 0 min 0 min 14,2 km/h (3 Bft)
17.07.2011 10:28 22,7 C 16,5 C 1,6 UV-I 1,4 C 57 % 79 % 40 % 997,7 hPa 0,0 l/m 6,4 km/h (2 Bft) 0 min 0 min 14,2 km/h (3 Bft)
17.07.2011 10:30 22,7 C 16,4 C 1,6 UV-I 1,3 C 57 % 77 % 37 % 997,7 hPa 0,0 l/m 6,8 km/h (2 Bft) 0 min 0 min 6,1 km/h (2 Bft)
17.07.2011 10:32 22,7 C 16,4 C 1,6 UV-I 1,1 C 57 % 78 % 31 % 997,7 hPa 0,0 l/m 6,4 km/h (2 Bft) 0 min 0 min 10,6 km/h (2 Bft)
17.07.2011 10:34 22,7 C 16,5 C 1,2 UV-I 0,9 C 57 % 79 % 26 % 997,7 hPa 0,0 l/m 6,4 km/h (2 Bft) 0 min 0 min 10,6 km/h (2 Bft)
17.07.2011 10:36 22,7 C 16,4 C 1,2 UV-I 0,9 C 57 % 78 % 26 % 997,7 hPa 0,0 l/m 6,8 km/h (2 Bft) 0 min 0 min 10,6 km/h (2 Bft)
17.07.2011 10:38 22,7 C 16,5 C 1,4 UV-I 0,7 C 57 % 78 % 20 % 997,7 hPa 0,0 l/m 5,6 km/h (1 Bft) 0 min 0 min 10,6 km/h (2 Bft)
17.07.2011 10:40 22,7 C 16,3 C 1,4 UV-I 0,8 C 57 % 78 % 23 % 997,7 hPa 0,0 l/m 5,2 km/h (1 Bft) 0 min 0 min 7,7 km/h (2 Bft)
17.07.2011 10:42 22,7 C 16,4 C 1,4 UV-I 0,7 C 57 % 77 % 20 % 997,7 hPa 0,0 l/m 5,2 km/h (1 Bft) 0 min 0 min 7,7 km/h (2 Bft)
17.07.2011 10:44 22,7 C 16,3 C 1,7 UV-I 0,8 C 57 % 78 % 23 % 997,8 hPa 0,0 l/m 5,2 km/h (1 Bft) 0 min 0 min 10,3 km/h (2 Bft)
17.07.2011 10:46 22,7 C 16,3 C 1,7 UV-I 0,8 C 57 % 78 % 23 % 997,8 hPa 0,0 l/m 4,8 km/h (1 Bft) 0 min 0 min 12,6 km/h (3 Bft)
17.07.2011 10:48 22,7 C 16,3 C 1,7 UV-I 0,8 C 56 % 77 % 23 % 997,8 hPa 0,0 l/m 4,8 km/h (1 Bft) 0 min 0 min 12,6 km/h (3 Bft)
17.07.2011 10:50 22,7 C 16,3 C 1,7 UV-I 0,8 C 56 % 77 % 23 % 997,8 hPa 0,0 l/m 5,6 km/h (1 Bft) 0 min 0 min 9,7 km/h (2 Bft)
17.07.2011 10:52 22,7 C 16,3 C 1,7 UV-I 0,9 C 56 % 77 % 26 % 997,8 hPa 0,0 l/m 6,0 km/h (2 Bft) 0 min 0 min 6,8 km/h (2 Bft)
17.07.2011 10:54 22,7 C 16,3 C 1,5 UV-I 0,8 C 56 % 77 % 23 % 997,8 hPa 0,0 l/m 6,4 km/h (2 Bft) 0 min 0 min 6,8 km/h (2 Bft)
17.07.2011 10:56 22,7 C 16,3 C 1,5 UV-I 0,9 C 56 % 77 % 26 % 997,8 hPa 0,0 l/m 6,8 km/h (2 Bft) 0 min 0 min 6,8 km/h (2 Bft)
17.07.2011 10:58 22,7 C 16,4 C 1,5 UV-I 0,7 C 56 % 77 % 20 % 997,8 hPa 0,0 l/m 6,8 km/h (2 Bft) 0 min 0 min 5,1 km/h (1 Bft)
17.07.2011 11:00 22,7 C 16,3 C 1,5 UV-I 1,0 C 56 % 77 % 29 % 997,8 hPa 0,0 l/m 6,4 km/h (2 Bft) 0 min 0 min 4,2 km/h (1 Bft)
17.07.2011 11:02 22,7 C 16,4 C 1,5 UV-I 1,1 C 56 % 77 % 31 % 997,8 hPa 0,0 l/m 5,6 km/h (1 Bft) 0 min 0 min 5,1 km/h (1 Bft)
17.07.2011 11:04 22,7 C 16,5 C 2,3 UV-I 1,2 C 56 % 77 % 34 % 998,2 hPa 0,0 l/m 5,6 km/h (1 Bft) 0 min 0 min 7,1 km/h (2 Bft)
17.07.2011 11:06 22,7 C 16,5 C 2,3 UV-I 1,4 C 56 % 77 % 40 % 998,2 hPa 0,0 l/m 5,2 km/h (1 Bft) 0 min 0 min 5,1 km/h (1 Bft)
17.07.2011 11:08 22,7 C 16,6 C 2,7 UV-I 1,6 C 56 % 77 % 46 % 998,2 hPa 0,0 l/m 5,2 km/h (1 Bft) 0 min 0 min 5,1 km/h (1 Bft)
17.07.2011 11:10 22,7 C 16,7 C 2,7 UV-I 1,7 C 56 % 77 % 49 % 998,2 hPa 0,0 l/m 4,4 km/h (1 Bft) 0 min 0 min 6,1 km/h (2 Bft)
17.07.2011 11:12 22,7 C 16,7 C 2,7 UV-I 2,1 C 56 % 77 % 60 % 998,2 hPa 0,0 l/m 4,4 km/h (1 Bft) 0 min 0 min 6,1 km/h (2 Bft)
17.07.2011 11:14 22,7 C 16,8 C 3,2 UV-I 2,4 C 56 % 77 % 69 % 998,2 hPa 0,0 l/m 4,0 km/h (1 Bft) 0 min 0 min 6,1 km/h (2 Bft)
17.07.2011 11:16 22,7 C 16,8 C 3,2 UV-I 2,8 C 56 % 77 % 80 % 998,2 hPa 0,0 l/m 3,6 km/h (1 Bft) 0 min 0 min 3,5 km/h (1 Bft)
17.07.2011 11:18 22,7 C 17,1 C 5,0 UV-I 3,2 C 56 % 77 % 91 % 998,2 hPa 0,0 l/m 4,0 km/h (1 Bft) 2 min 0 min 4,8 km/h (1 Bft)
17.07.2011 11:20 22,8 C 17,1 C 5,0 UV-I 3,8 C 56 % 77 % 100 % 998,2 hPa 0,0 l/m 4,4 km/h (1 Bft) 2 min 0 min 4,8 km/h (1 Bft)
17.07.2011 11:22 22,8 C 17,3 C 5,0 UV-I 4,4 C 56 % 77 % 100 % 998,2 hPa 0,0 l/m 4,0 km/h (1 Bft) 2 min 0 min 4,8 km/h (1 Bft)
17.07.2011 11:24 22,8 C 17,4 C 4,2 UV-I 4,6 C 56 % 77 % 100 % 998,1 hPa 0,0 l/m 4,4 km/h (1 Bft) 2 min 0 min 4,8 km/h (1 Bft)
17.07.2011 11:26 22,8 C 17,5 C 4,2 UV-I 4,3 C 56 % 75 % 100 % 998,1 hPa 0,0 l/m 5,6 km/h (1 Bft) 2 min 0 min 10,0 km/h (2 Bft)
17.07.2011 11:28 22,8 C 17,5 C 1,7 UV-I 3,7 C 56 % 76 % 100 % 998,1 hPa 0,0 l/m 4,8 km/h (1 Bft) 2 min 0 min 10,0 km/h (2 Bft)
17.07.2011 11:30 22,8 C 17,4 C 1,7 UV-I 3,3 C 56 % 75 % 94 % 998,1 hPa 0,0 l/m 5,2 km/h (1 Bft) 2 min 0 min 5,5 km/h (1 Bft)
17.07.2011 11:32 22,8 C 17,3 C 1,7 UV-I 3,0 C 56 % 75 % 86 % 998,1 hPa 0,0 l/m 5,2 km/h (1 Bft) 2 min 0 min 5,5 km/h (1 Bft)
17.07.2011 11:34 22,8 C 17,2 C 1,5 UV-I 2,7 C 56 % 75 % 77 % 998,1 hPa 0,0 l/m 4,8 km/h (1 Bft) 0 min 0 min 6,8 km/h (2 Bft)
17.07.2011 11:36 22,8 C 17,2 C 1,5 UV-I 2,3 C 56 % 75 % 66 % 998,1 hPa 0,0 l/m 3,6 km/h (1 Bft) 0 min 0 min 6,8 km/h (2 Bft)
17.07.2011 11:38 22,8 C 17,3 C 2,1 UV-I 2,1 C 56 % 75 % 60 % 998,1 hPa 0,0 l/m 3,6 km/h (1 Bft) 0 min 0 min 5,1 km/h (1 Bft)
17.07.2011 11:40 22,8 C 17,3 C 2,1 UV-I 1,9 C 56 % 75 % 54 % 998,1 hPa 0,0 l/m 4,0 km/h (1 Bft) 0 min 0 min 9,0 km/h (2 Bft)
17.07.2011 11:42 22,8 C 17,2 C 2,1 UV-I 1,9 C 56 % 75 % 54 % 998,1 hPa 0,0 l/m 4,0 km/h (1 Bft) 0 min 0 min 9,0 km/h (2 Bft)
17.07.2011 11:44 22,8 C 17,1 C 1,7 UV-I 1,8 C 56 % 75 % 51 % 998,1 hPa 0,0 l/m 4,0 km/h (1 Bft) 0 min 0 min 6,1 km/h (2 Bft)
17.07.2011 11:46 22,8 C 17,0 C 1,7 UV-I 1,8 C 56 % 75 % 51 % 998,1 hPa 0,0 l/m 4,8 km/h (1 Bft) 0 min 0 min 6,1 km/h (2 Bft)
17.07.2011 11:48 22,8 C 17,0 C 2,7 UV-I 1,8 C 56 % 75 % 51 % 998,1 hPa 0,0 l/m 4,8 km/h (1 Bft) 0 min 0 min 5,8 km/h (2 Bft)
17.07.2011 11:50 22,8 C 17,0 C 2,7 UV-I 2,0 C 56 % 75 % 57 % 998,1 hPa 0,0 l/m 5,6 km/h (1 Bft) 0 min 0 min 7,1 km/h (2 Bft)
17.07.2011 11:52 22,8 C 17,2 C 2,7 UV-I 2,6 C 56 % 76 % 74 % 998,1 hPa 0,0 l/m 4,8 km/h (1 Bft) 0 min 0 min 5,8 km/h (2 Bft)
17.07.2011 11:54 22,8 C 17,3 C 2,7 UV-I 3,5 C 56 % 75 % 100 % 998,1 hPa 0,0 l/m 5,6 km/h (1 Bft) 2 min 0 min 14,5 km/h (3 Bft)
17.07.2011 11:56 22,8 C 17,5 C 2,7 UV-I 4,3 C 56 % 76 % 100 % 998,1 hPa 0,0 l/m 5,6 km/h (1 Bft) 2 min 0 min 14,5 km/h (3 Bft)
17.07.2011 11:58 22,8 C 17,7 C 3,7 UV-I 4,5 C 56 % 74 % 100 % 998,1 hPa 0,0 l/m 5,6 km/h (1 Bft) 2 min 0 min 7,7 km/h (2 Bft)
17.07.2011 12:00 22,8 C 17,7 C 3,7 UV-I 4,4 C 56 % 74 % 100 % 998,1 hPa 0,0 l/m 6,0 km/h (2 Bft) 2 min 0 min 7,7 km/h (2 Bft)
17.07.2011 12:02 22,8 C 17,9 C 3,7 UV-I 4,1 C 55 % 74 % 100 % 998,1 hPa 0,0 l/m 6,0 km/h (2 Bft) 2 min 0 min 6,8 km/h (2 Bft)
17.07.2011 12:04 22,8 C 17,9 C 3,7 UV-I 3,9 C 56 % 73 % 100 % 997,7 hPa 0,0 l/m 6,8 km/h (2 Bft) 2 min 0 min 6,8 km/h (2 Bft)
17.07.2011 12:06 22,8 C 17,8 C 3,7 UV-I 4,1 C 55 % 71 % 100 % 997,7 hPa 0,0 l/m 6,8 km/h (2 Bft) 2 min 0 min 10,6 km/h (2 Bft)
17.07.2011 12:08 22,9 C 17,9 C 2,9 UV-I 3,6 C 55 % 70 % 100 % 997,7 hPa 0,0 l/m 7,2 km/h (2 Bft) 2 min 0 min 10,6 km/h (2 Bft)
17.07.2011 12:10 22,8 C 17,9 C 2,9 UV-I 3,3 C 55 % 71 % 94 % 997,7 hPa 0,0 l/m 7,2 km/h (2 Bft) 2 min 0 min 10,9 km/h (2 Bft)
17.07.2011 12:12 22,9 C 17,8 C 2,9 UV-I 3,3 C 55 % 71 % 94 % 997,7 hPa 0,0 l/m 7,2 km/h (2 Bft) 2 min 0 min 11,9 km/h (2 Bft)
17.07.2011 12:14 22,8 C 18,0 C 3,3 UV-I 3,6 C 55 % 71 % 100 % 997,7 hPa 0,0 l/m 7,2 km/h (2 Bft) 2 min 0 min 11,9 km/h (2 Bft)
17.07.2011 12:16 22,9 C 18,1 C 3,3 UV-I 4,3 C 55 % 70 % 100 % 997,7 hPa 0,0 l/m 7,6 km/h (2 Bft) 2 min 0 min 16,1 km/h (3 Bft)
17.07.2011 12:18 22,9 C 18,2 C 3,6 UV-I 4,8 C 55 % 71 % 100 % 997,7 hPa 0,0 l/m 7,2 km/h (2 Bft) 2 min 0 min 16,1 km/h (3 Bft)
17.07.2011 12:20 22,9 C 18,5 C 3,6 UV-I 5,8 C 55 % 70 % 100 % 997,7 hPa 0,0 l/m 7,2 km/h (2 Bft) 2 min 0 min 16,1 km/h (3 Bft)
17.07.2011 12:22 22,9 C 18,7 C 3,6 UV-I 5,8 C 55 % 70 % 100 % 997,7 hPa 0,0 l/m 8,0 km/h (2 Bft) 2 min 0 min 16,1 km/h (3 Bft)
17.07.2011 12:24 22,9 C 18,8 C 3,7 UV-I 5,8 C 55 % 68 % 100 % 998,5 hPa 0,0 l/m 8,4 km/h (2 Bft) 2 min 0 min 7,7 km/h (2 Bft)
17.07.2011 12:26 23,0 C 18,9 C 3,7 UV-I 5,5 C 55 % 68 % 100 % 998,5 hPa 0,0 l/m 8,4 km/h (2 Bft) 2 min 0 min 23,2 km/h (4 Bft)
17.07.2011 12:28 23,0 C 18,9 C 3,7 UV-I 5,7 C 55 % 68 % 100 % 998,5 hPa 0,0 l/m 7,6 km/h (2 Bft) 2 min 0 min 7,7 km/h (2 Bft)
17.07.2011 12:30 23,0 C 19,1 C 3,7 UV-I 5,8 C 55 % 67 % 100 % 998,5 hPa 0,0 l/m 8,4 km/h (2 Bft) 2 min 0 min 8,0 km/h (2 Bft)
17.07.2011 12:32 23,0 C 19,1 C 3,7 UV-I 5,7 C 55 % 67 % 100 % 998,5 hPa 0,0 l/m 7,6 km/h (2 Bft) 2 min 0 min 8,0 km/h (2 Bft)
17.07.2011 12:34 23,0 C 19,1 C 3,7 UV-I 5,5 C 55 % 66 % 100 % 998,5 hPa 0,0 l/m 7,2 km/h (2 Bft) 2 min 0 min 10,3 km/h (2 Bft)
17.07.2011 12:36 23,0 C 19,1 C 3,7 UV-I 5,0 C 55 % 64 % 100 % 998,5 hPa 0,0 l/m 7,2 km/h (2 Bft) 2 min 0 min 10,3 km/h (2 Bft)
17.07.2011 12:38 23,0 C 19,1 C 2,6 UV-I 4,6 C 55 % 64 % 100 % 998,5 hPa 0,0 l/m 7,2 km/h (2 Bft) 2 min 0 min 12,2 km/h (2 Bft)
17.07.2011 12:40 23,0 C 18,8 C 2,6 UV-I 4,1 C 54 % 63 % 100 % 998,5 hPa 0,0 l/m 8,8 km/h (2 Bft) 2 min 0 min 12,2 km/h (2 Bft)
17.07.2011 12:42 23,0 C 18,8 C 2,6 UV-I 3,6 C 54 % 64 % 100 % 998,5 hPa 0,0 l/m 8,4 km/h (2 Bft) 2 min 0 min 12,9 km/h (3 Bft)
17.07.2011 12:44 23,0 C 18,7 C 3,5 UV-I 3,7 C 54 % 64 % 100 % 998,6 hPa 0,0 l/m 9,2 km/h (2 Bft) 2 min 0 min 12,9 km/h (3 Bft)
17.07.2011 12:46 23,0 C 18,7 C 3,5 UV-I 3,7 C 54 % 64 % 100 % 998,6 hPa 0,0 l/m 9,2 km/h (2 Bft) 2 min 0 min 7,1 km/h (2 Bft)
17.07.2011 12:48 23,0 C 18,7 C 3,8 UV-I 3,7 C 54 % 63 % 100 % 998,6 hPa 0,0 l/m 9,2 km/h (2 Bft) 2 min 0 min 9,7 km/h (2 Bft)
17.07.2011 12:50 23,0 C 18,7 C 3,8 UV-I 3,7 C 54 % 63 % 100 % 998,6 hPa 0,0 l/m 8,8 km/h (2 Bft) 2 min 0 min 12,9 km/h (3 Bft)
17.07.2011 12:52 23,0 C 18,7 C 3,8 UV-I 3,4 C 54 % 62 % 97 % 998,6 hPa 0,0 l/m 8,8 km/h (2 Bft) 2 min 0 min 12,9 km/h (3 Bft)
17.07.2011 12:54 23,0 C 18,7 C 2,8 UV-I 3,2 C 54 % 63 % 91 % 998,6 hPa 0,0 l/m 8,8 km/h (2 Bft) 2 min 0 min 10,9 km/h (2 Bft)
17.07.2011 12:56 23,0 C 18,5 C 2,8 UV-I 3,0 C 54 % 63 % 86 % 998,6 hPa 0,0 l/m 8,0 km/h (2 Bft) 2 min 0 min 4,8 km/h (1 Bft)
17.07.2011 12:58 23,0 C 18,7 C 3,0 UV-I 2,7 C 54 % 63 % 77 % 998,6 hPa 0,0 l/m 8,0 km/h (2 Bft) 0 min 0 min 4,2 km/h (1 Bft)
17.07.2011 13:00 23,1 C 18,6 C 3,0 UV-I 2,9 C 54 % 64 % 83 % 998,6 hPa 0,0 l/m 7,6 km/h (2 Bft) 2 min 0 min 9,7 km/h (2 Bft)
17.07.2011 13:02 23,0 C 18,8 C 3,0 UV-I 3,4 C 54 % 63 % 97 % 998,6 hPa 0,0 l/m 7,2 km/h (2 Bft) 2 min 0 min 11,9 km/h (2 Bft)
17.07.2011 13:04 23,1 C 18,9 C 3,6 UV-I 3,8 C 53 % 62 % 100 % 998,7 hPa 0,0 l/m 7,2 km/h (2 Bft) 2 min 0 min 11,9 km/h (2 Bft)
17.07.2011 13:06 23,1 C 18,9 C 3,6 UV-I 4,2 C 53 % 62 % 100 % 998,7 hPa 0,0 l/m 7,6 km/h (2 Bft) 2 min 0 min 10,6 km/h (2 Bft)
17.07.2011 13:08 23,1 C 18,9 C 3,3 UV-I 4,0 C 53 % 63 % 100 % 998,7 hPa 0,0 l/m 8,4 km/h (2 Bft) 2 min 0 min 10,9 km/h (2 Bft)
17.07.2011 13:10 23,1 C 19,1 C 3,3 UV-I 3,8 C 53 % 62 % 100 % 998,7 hPa 0,0 l/m 8,8 km/h (2 Bft) 2 min 0 min 10,9 km/h (2 Bft)
17.07.2011 13:12 23,1 C 19,1 C 3,3 UV-I 4,4 C 53 % 61 % 100 % 998,7 hPa 0,0 l/m 9,2 km/h (2 Bft) 2 min 0 min 9,0 km/h (2 Bft)
17.07.2011 13:14 23,1 C 19,2 C 3,5 UV-I 4,4 C 53 % 61 % 100 % 998,7 hPa 0,0 l/m 9,2 km/h (2 Bft) 2 min 0 min 9,7 km/h (2 Bft)
17.07.2011 13:16 23,1 C 19,2 C 3,5 UV-I 4,7 C 53 % 61 % 100 % 998,7 hPa 0,0 l/m 8,4 km/h (2 Bft) 2 min 0 min 9,7 km/h (2 Bft)
17.07.2011 13:18 23,1 C 19,5 C 3,1 UV-I 5,0 C 53 % 61 % 100 % 998,7 hPa 0,0 l/m 8,8 km/h (2 Bft) 2 min 0 min 20,6 km/h (4 Bft)
17.07.2011 13:20 23,2 C 19,5 C 3,1 UV-I 5,3 C 53 % 59 % 100 % 998,7 hPa 0,0 l/m 9,6 km/h (2 Bft) 2 min 0 min 20,6 km/h (4 Bft)
17.07.2011 13:22 23,2 C 19,6 C 3,1 UV-I 5,0 C 53 % 60 % 100 % 998,7 hPa 0,0 l/m 8,8 km/h (2 Bft) 2 min 0 min 10,6 km/h (2 Bft)
17.07.2011 13:24 23,2 C 19,7 C 3,7 UV-I 5,5 C 53 % 60 % 100 % 998,6 hPa 0,0 l/m 8,0 km/h (2 Bft) 2 min 0 min 5,1 km/h (1 Bft)
17.07.2011 13:26 23,2 C 19,9 C 3,7 UV-I 5,6 C 53 % 60 % 100 % 998,6 hPa 0,0 l/m 8,0 km/h (2 Bft) 2 min 0 min 12,9 km/h (3 Bft)
17.07.2011 13:28 23,2 C 19,8 C 3,9 UV-I 5,5 C 53 % 59 % 100 % 998,6 hPa 0,0 l/m 7,6 km/h (2 Bft) 2 min 0 min 12,9 km/h (3 Bft)
17.07.2011 13:30 23,2 C 19,9 C 3,9 UV-I 5,2 C 53 % 58 % 100 % 998,6 hPa 0,0 l/m 7,2 km/h (2 Bft) 2 min 0 min 9,7 km/h (2 Bft)
17.07.2011 13:32 23,2 C 19,9 C 3,9 UV-I 5,1 C 53 % 58 % 100 % 998,6 hPa 0,0 l/m 6,4 km/h (2 Bft) 2 min 0 min 8,7 km/h (2 Bft)
17.07.2011 13:34 23,2 C 19,9 C 4,1 UV-I 4,9 C 52 % 58 % 100 % 998,6 hPa 0,0 l/m 7,6 km/h (2 Bft) 2 min 0 min 8,0 km/h (2 Bft)
17.07.2011 13:36 23,2 C 20,0 C 4,1 UV-I 4,9 C 52 % 59 % 100 % 998,6 hPa 0,0 l/m 7,2 km/h (2 Bft) 2 min 0 min 8,0 km/h (2 Bft)
17.07.2011 13:38 23,2 C 20,0 C 4,1 UV-I 4,9 C 52 % 58 % 100 % 998,6 hPa 0,0 l/m 7,2 km/h (2 Bft) 2 min 0 min 6,8 km/h (2 Bft)
17.07.2011 13:40 23,3 C 20,1 C 4,1 UV-I 4,6 C 52 % 58 % 100 % 998,6 hPa 0,0 l/m 6,4 km/h (2 Bft) 2 min 0 min 5,5 km/h (1 Bft)
17.07.2011 13:42 23,3 C 20,0 C 4,1 UV-I 4,6 C 52 % 58 % 100 % 998,6 hPa 0,0 l/m 6,4 km/h (2 Bft) 2 min 0 min 7,4 km/h (2 Bft)
17.07.2011 13:44 23,3 C 20,0 C 4,2 UV-I 4,3 C 52 % 58 % 100 % 998,8 hPa 0,0 l/m 6,4 km/h (2 Bft) 2 min 0 min 7,4 km/h (2 Bft)
17.07.2011 13:46 23,2 C 20,0 C 4,2 UV-I 4,4 C 52 % 58 % 100 % 998,8 hPa 0,0 l/m 6,0 km/h (2 Bft) 2 min 0 min 9,7 km/h (2 Bft)
17.07.2011 13:48 23,4 C 20,3 C 4,2 UV-I 4,7 C 52 % 59 % 100 % 998,8 hPa 0,0 l/m 6,0 km/h (2 Bft) 2 min 0 min 11,6 km/h (2 Bft)
17.07.2011 13:50 23,4 C 20,3 C 4,2 UV-I 5,1 C 52 % 56 % 100 % 998,8 hPa 0,0 l/m 6,4 km/h (2 Bft) 2 min 0 min 12,9 km/h (3 Bft)
17.07.2011 13:52 23,4 C 20,3 C 4,2 UV-I 5,4 C 52 % 57 % 100 % 998,8 hPa 0,0 l/m 7,6 km/h (2 Bft) 2 min 0 min 12,9 km/h (3 Bft)
17.07.2011 13:54 23,4 C 20,5 C 5,5 UV-I 5,5 C 52 % 57 % 100 % 998,8 hPa 0,0 l/m 7,2 km/h (2 Bft) 2 min 0 min 7,7 km/h (2 Bft)
17.07.2011 13:56 23,4 C 20,5 C 5,5 UV-I 5,8 C 52 % 56 % 100 % 998,8 hPa 0,0 l/m 8,4 km/h (2 Bft) 2 min 0 min 7,7 km/h (2 Bft)
17.07.2011 13:58 23,4 C 20,5 C 5,2 UV-I 5,7 C 52 % 55 % 100 % 998,8 hPa 0,0 l/m 9,6 km/h (2 Bft) 2 min 0 min 12,9 km/h (3 Bft)
17.07.2011 14:00 23,4 C 20,5 C 5,2 UV-I 5,5 C 52 % 53 % 100 % 998,8 hPa 0,0 l/m 10,4 km/h (2 Bft) 2 min 0 min 12,9 km/h (3 Bft)
17.07.2011 14:02 23,4 C 20,5 C 5,2 UV-I 5,4 C 51 % 54 % 100 % 998,8 hPa 0,0 l/m 9,6 km/h (2 Bft) 2 min 0 min 6,8 km/h (2 Bft)
17.07.2011 14:04 23,5 C 20,5 C 5,4 UV-I 5,4 C 51 % 53 % 100 % 998,9 hPa 0,0 l/m 10,8 km/h (2 Bft) 2 min 0 min 12,6 km/h (3 Bft)
17.07.2011 14:06 23,5 C 20,5 C 5,4 UV-I 5,5 C 51 % 53 % 100 % 998,9 hPa 0,0 l/m 11,6 km/h (2 Bft) 2 min 0 min 20,6 km/h (4 Bft)
17.07.2011 14:08 23,5 C 20,5 C 4,9 UV-I 5,3 C 51 % 53 % 100 % 998,9 hPa 0,0 l/m 11,2 km/h (2 Bft) 2 min 0 min 20,6 km/h (4 Bft)
17.07.2011 14:10 23,5 C 20,5 C 4,9 UV-I 4,9 C 51 % 54 % 100 % 998,9 hPa 0,0 l/m 10,0 km/h (2 Bft) 2 min 0 min 9,0 km/h (2 Bft)
17.07.2011 14:12 23,5 C 20,7 C 4,9 UV-I 4,9 C 51 % 55 % 100 % 998,9 hPa 0,0 l/m 9,2 km/h (2 Bft) 2 min 0 min 7,7 km/h (2 Bft)
17.07.2011 14:14 23,5 C 20,7 C 5,5 UV-I 5,3 C 51 % 56 % 100 % 998,9 hPa 0,0 l/m 8,0 km/h (2 Bft) 2 min 0 min 7,7 km/h (2 Bft)
17.07.2011 14:16 23,6 C 20,8 C 5,5 UV-I 5,2 C 51 % 55 % 100 % 998,9 hPa 0,0 l/m 7,2 km/h (2 Bft) 2 min 0 min 8,0 km/h (2 Bft)
17.07.2011 14:18 23,6 C 20,9 C 5,0 UV-I 5,0 C 51 % 52 % 100 % 998,9 hPa 0,0 l/m 6,4 km/h (2 Bft) 2 min 0 min 15,1 km/h (3 Bft)
17.07.2011 14:20 23,6 C 20,9 C 5,0 UV-I 5,1 C 51 % 53 % 100 % 998,9 hPa 0,0 l/m 6,8 km/h (2 Bft) 2 min 0 min 16,7 km/h (3 Bft)
17.07.2011 14:22 23,6 C 20,9 C 5,0 UV-I 5,2 C 51 % 53 % 100 % 998,9 hPa 0,0 l/m 7,2 km/h (2 Bft) 2 min 0 min 16,7 km/h (3 Bft)
17.07.2011 14:24 23,7 C 21,0 C 5,2 UV-I 5,2 C 51 % 52 % 100 % 999,1 hPa 0,0 l/m 8,4 km/h (2 Bft) 2 min 0 min 15,1 km/h (3 Bft)
17.07.2011 14:26 23,8 C 20,9 C 5,2 UV-I 4,8 C 51 % 51 % 100 % 999,1 hPa 0,0 l/m 10,0 km/h (2 Bft) 2 min 0 min 15,1 km/h (3 Bft)
17.07.2011 14:28 23,8 C 20,9 C 5,8 UV-I 4,9 C 50 % 51 % 100 % 999,1 hPa 0,0 l/m 10,4 km/h (2 Bft) 2 min 0 min 10,3 km/h (2 Bft)
17.07.2011 14:30 23,8 C 20,9 C 5,8 UV-I 4,7 C 50 % 51 % 100 % 999,1 hPa 0,0 l/m 10,4 km/h (2 Bft) 2 min 0 min 10,6 km/h (2 Bft)
17.07.2011 14:32 23,8 C 20,8 C 5,8 UV-I 5,0 C 50 % 52 % 100 % 999,1 hPa 0,0 l/m 10,4 km/h (2 Bft) 2 min 0 min 10,6 km/h (2 Bft)
17.07.2011 14:34 23,9 C 20,8 C 4,8 UV-I 4,9 C 50 % 52 % 100 % 999,1 hPa 0,0 l/m 11,2 km/h (2 Bft) 2 min 0 min 17,1 km/h (3 Bft)
17.07.2011 14:36 23,9 C 20,8 C 4,8 UV-I 4,2 C 50 % 51 % 100 % 999,1 hPa 0,0 l/m 11,6 km/h (2 Bft) 2 min 0 min 27,0 km/h (4 Bft)
17.07.2011 14:38 23,9 C 20,6 C 4,6 UV-I 4,2 C 50 % 52 % 100 % 999,1 hPa 0,0 l/m 10,8 km/h (2 Bft) 2 min 0 min 27,0 km/h (4 Bft)
17.07.2011 14:40 23,9 C 20,7 C 4,6 UV-I 4,2 C 50 % 53 % 100 % 999,1 hPa 0,0 l/m 10,4 km/h (2 Bft) 2 min 0 min 9,7 km/h (2 Bft)
17.07.2011 14:42 24,0 C 20,7 C 4,6 UV-I 4,5 C 49 % 53 % 100 % 999,1 hPa 0,0 l/m 10,8 km/h (2 Bft) 2 min 0 min 9,0 km/h (2 Bft)
17.07.2011 14:44 24,0 C 20,8 C 4,8 UV-I 4,2 C 49 % 53 % 100 % 999,2 hPa 0,0 l/m 10,0 km/h (2 Bft) 2 min 0 min 9,0 km/h (2 Bft)
17.07.2011 14:46 24,0 C 20,9 C 4,8 UV-I 3,8 C 49 % 53 % 100 % 999,2 hPa 0,0 l/m 9,6 km/h (2 Bft) 2 min 0 min 27,0 km/h (4 Bft)
17.07.2011 14:48 24,0 C 20,8 C 6,0 UV-I 4,4 C 49 % 53 % 100 % 999,2 hPa 0,0 l/m 9,2 km/h (2 Bft) 2 min 0 min 14,2 km/h (3 Bft)
17.07.2011 14:50 24,0 C 21,1 C 6,0 UV-I 4,4 C 49 % 53 % 100 % 999,2 hPa 0,0 l/m 9,2 km/h (2 Bft) 2 min 0 min 15,8 km/h (3 Bft)
17.07.2011 14:52 24,1 C 21,0 C 6,0 UV-I 4,9 C 49 % 53 % 100 % 999,2 hPa 0,0 l/m 8,8 km/h (2 Bft) 2 min 0 min 15,8 km/h (3 Bft)
17.07.2011 14:54 24,1 C 21,1 C 5,7 UV-I 5,1 C 49 % 52 % 100 % 999,2 hPa 0,0 l/m 10,0 km/h (2 Bft) 2 min 0 min 10,9 km/h (2 Bft)
17.07.2011 14:56 24,2 C 21,1 C 5,7 UV-I 4,7 C 49 % 52 % 100 % 999,2 hPa 0,0 l/m 10,4 km/h (2 Bft) 2 min 0 min 10,9 km/h (2 Bft)
17.07.2011 14:58 24,2 C 20,9 C 5,1 UV-I 4,6 C 49 % 52 % 100 % 999,2 hPa 0,0 l/m 9,6 km/h (2 Bft) 2 min 0 min 10,6 km/h (2 Bft)
17.07.2011 15:00 24,2 C 21,0 C 5,1 UV-I 4,7 C 49 % 52 % 100 % 999,2 hPa 0,0 l/m 9,6 km/h (2 Bft) 2 min 0 min 6,8 km/h (2 Bft)
17.07.2011 15:02 24,2 C 21,1 C 5,1 UV-I 5,0 C 49 % 53 % 100 % 999,2 hPa 0,0 l/m 9,2 km/h (2 Bft) 2 min 0 min 6,8 km/h (2 Bft)
17.07.2011 15:04 24,3 C 21,2 C 5,6 UV-I 5,1 C 49 % 52 % 100 % 999,1 hPa 0,0 l/m 8,4 km/h (2 Bft) 2 min 0 min 7,4 km/h (2 Bft)
17.07.2011 15:06 24,3 C 21,2 C 5,6 UV-I 5,0 C 49 % 51 % 100 % 999,1 hPa 0,0 l/m 8,4 km/h (2 Bft) 2 min 0 min 9,0 km/h (2 Bft)
17.07.2011 15:08 24,4 C 21,2 C 4,7 UV-I 5,3 C 49 % 52 % 100 % 999,1 hPa 0,0 l/m 8,0 km/h (2 Bft) 2 min 0 min 14,8 km/h (3 Bft)
17.07.2011 15:10 24,2 C 21,2 C 4,7 UV-I 4,9 C 48 % 51 % 100 % 999,1 hPa 0,0 l/m 8,8 km/h (2 Bft) 2 min 0 min 16,1 km/h (3 Bft)
17.07.2011 15:12 24,4 C 21,1 C 4,7 UV-I 4,4 C 48 % 50 % 100 % 999,1 hPa 0,0 l/m 9,6 km/h (2 Bft) 2 min 0 min 16,1 km/h (3 Bft)
17.07.2011 15:14 24,4 C 21,1 C 3,8 UV-I 4,0 C 48 % 50 % 100 % 999,1 hPa 0,0 l/m 9,6 km/h (2 Bft) 2 min 0 min 15,8 km/h (3 Bft)
17.07.2011 15:16 24,4 C 21,0 C 3,8 UV-I 4,1 C 48 % 49 % 100 % 999,1 hPa 0,0 l/m 10,4 km/h (2 Bft) 2 min 0 min 10,9 km/h (2 Bft)
17.07.2011 15:18 24,4 C 21,0 C 4,1 UV-I 4,0 C 48 % 50 % 100 % 999,1 hPa 0,0 l/m 10,8 km/h (2 Bft) 2 min 0 min 10,9 km/h (2 Bft)
17.07.2011 15:20 24,4 C 20,9 C 4,1 UV-I 3,8 C 48 % 51 % 100 % 999,1 hPa 0,0 l/m 10,0 km/h (2 Bft) 2 min 0 min 9,3 km/h (2 Bft)
17.07.2011 15:22 24,4 C 21,1 C 4,1 UV-I 3,3 C 48 % 51 % 94 % 999,1 hPa 0,0 l/m 9,6 km/h (2 Bft) 2 min 0 min 15,4 km/h (3 Bft)
17.07.2011 15:24 24,4 C 20,9 C 3,2 UV-I 3,3 C 48 % 50 % 94 % 998,8 hPa 0,0 l/m 10,0 km/h (2 Bft) 2 min 0 min 20,0 km/h (4 Bft)
17.07.2011 15:26 24,4 C 20,9 C 3,2 UV-I 3,1 C 48 % 50 % 89 % 998,8 hPa 0,0 l/m 10,0 km/h (2 Bft) 2 min 0 min 20,0 km/h (4 Bft)
17.07.2011 15:28 24,4 C 21,1 C 5,1 UV-I 3,0 C 48 % 49 % 86 % 998,8 hPa 0,0 l/m 9,6 km/h (2 Bft) 2 min 0 min 16,4 km/h (3 Bft)
17.07.2011 15:30 24,4 C 21,1 C 5,1 UV-I 3,4 C 48 % 50 % 97 % 998,8 hPa 0,0 l/m 9,6 km/h (2 Bft) 2 min 0 min 16,4 km/h (3 Bft)
17.07.2011 15:32 24,5 C 21,0 C 5,1 UV-I 3,8 C 48 % 49 % 100 % 998,8 hPa 0,0 l/m 10,0 km/h (2 Bft) 2 min 0 min 11,9 km/h (2 Bft)
17.07.2011 15:34 24,5 C 21,1 C 4,2 UV-I 3,6 C 48 % 50 % 100 % 998,8 hPa 0,0 l/m 9,2 km/h (2 Bft) 2 min 0 min 11,9 km/h (2 Bft)
17.07.2011 15:36 24,5 C 21,1 C 4,2 UV-I 3,4 C 48 % 50 % 97 % 998,8 hPa 0,0 l/m 8,8 km/h (2 Bft) 2 min 0 min 11,6 km/h (2 Bft)
17.07.2011 15:38 24,5 C 20,9 C 2,9 UV-I 3,3 C 47 % 50 % 94 % 998,8 hPa 0,0 l/m 8,8 km/h (2 Bft) 2 min 0 min 11,6 km/h (2 Bft)
17.07.2011 15:40 24,5 C 20,9 C 2,9 UV-I 2,9 C 47 % 51 % 83 % 998,8 hPa 0,0 l/m 8,4 km/h (2 Bft) 2 min 0 min 8,7 km/h (2 Bft)
17.07.2011 15:42 24,5 C 20,8 C 2,9 UV-I 2,9 C 47 % 51 % 83 % 998,8 hPa 0,0 l/m 8,0 km/h (2 Bft) 2 min 0 min 9,7 km/h (2 Bft)
17.07.2011 15:44 24,5 C 20,8 C 3,5 UV-I 2,9 C 47 % 52 % 83 % 998,7 hPa 0,0 l/m 7,2 km/h (2 Bft) 2 min 0 min 14,5 km/h (3 Bft)
17.07.2011 15:46 24,5 C 20,8 C 3,5 UV-I 2,8 C 47 % 51 % 80 % 998,7 hPa 0,0 l/m 8,0 km/h (2 Bft) 0 min 0 min 14,5 km/h (3 Bft)
17.07.2011 15:48 24,5 C 20,9 C 4,7 UV-I 2,8 C 47 % 51 % 80 % 998,7 hPa 0,0 l/m 8,0 km/h (2 Bft) 0 min 0 min 10,0 km/h (2 Bft)
17.07.2011 15:50 24,5 C 20,9 C 4,7 UV-I 3,1 C 47 % 52 % 89 % 998,7 hPa 0,0 l/m 8,0 km/h (2 Bft) 2 min 0 min 10,3 km/h (2 Bft)
17.07.2011 15:52 24,6 C 20,9 C 4,7 UV-I 3,3 C 47 % 50 % 94 % 998,7 hPa 0,0 l/m 10,4 km/h (2 Bft) 2 min 0 min 28,6 km/h (4 Bft)
17.07.2011 15:54 24,5 C 20,8 C 4,0 UV-I 3,2 C 47 % 51 % 91 % 998,7 hPa 0,0 l/m 10,8 km/h (2 Bft) 2 min 0 min 28,6 km/h (4 Bft)
17.07.2011 15:56 24,5 C 20,9 C 4,0 UV-I 2,9 C 47 % 51 % 83 % 998,7 hPa 0,0 l/m 10,8 km/h (2 Bft) 2 min 0 min 28,6 km/h (4 Bft)
17.07.2011 15:58 24,6 C 20,7 C 3,6 UV-I 2,9 C 47 % 50 % 83 % 998,7 hPa 0,0 l/m 10,4 km/h (2 Bft) 2 min 0 min 15,1 km/h (3 Bft)
17.07.2011 16:00 24,6 C 20,6 C 3,6 UV-I 2,5 C 47 % 52 % 71 % 998,7 hPa 0,0 l/m 10,0 km/h (2 Bft) 0 min 0 min 15,1 km/h (3 Bft)
17.07.2011 16:02 24,6 C 20,5 C 3,6 UV-I 2,4 C 47 % 52 % 69 % 998,7 hPa 0,0 l/m 8,8 km/h (2 Bft) 0 min 0 min 4,2 km/h (1 Bft)
17.07.2011 16:04 24,5 C 20,5 C 1,9 UV-I 2,0 C 47 % 53 % 57 % 998,6 hPa 0,0 l/m 7,2 km/h (2 Bft) 0 min 0 min 5,5 km/h (1 Bft)
17.07.2011 16:06 24,5 C 20,3 C 1,9 UV-I 1,9 C 47 % 52 % 54 % 998,6 hPa 0,0 l/m 6,8 km/h (2 Bft) 0 min 0 min 7,1 km/h (2 Bft)
17.07.2011 16:08 24,5 C 20,2 C 0,9 UV-I 1,5 C 47 % 52 % 43 % 998,6 hPa 0,0 l/m 7,2 km/h (2 Bft) 0 min 0 min 14,2 km/h (3 Bft)
17.07.2011 16:10 24,5 C 20,1 C 0,9 UV-I 1,0 C 47 % 53 % 29 % 998,6 hPa 0,0 l/m 6,4 km/h (2 Bft) 0 min 0 min 14,2 km/h (3 Bft)
17.07.2011 16:12 24,5 C 19,9 C 0,9 UV-I 0,9 C 47 % 54 % 26 % 998,6 hPa 0,0 l/m 6,8 km/h (2 Bft) 0 min 0 min 8,0 km/h (2 Bft)
17.07.2011 16:14 24,5 C 19,7 C 0,5 UV-I 0,6 C 47 % 54 % 17 % 998,6 hPa 0,0 l/m 8,0 km/h (2 Bft) 0 min 0 min 8,0 km/h (2 Bft)
17.07.2011 16:16 24,5 C 19,7 C 0,5 UV-I 0,2 C 47 % 55 % 6 % 998,6 hPa 0,0 l/m 7,6 km/h (2 Bft) 0 min 0 min 5,8 km/h (2 Bft)
17.07.2011 16:18 24,4 C 19,4 C 0,4 UV-I 0,4 C 47 % 56 % 11 % 998,6 hPa 0,0 l/m 7,2 km/h (2 Bft) 0 min 0 min 9,3 km/h (2 Bft)
17.07.2011 16:20 24,4 C 19,4 C 0,4 UV-I 0,0 C 47 % 57 % 0 % 998,6 hPa 0,0 l/m 6,8 km/h (2 Bft) 0 min 0 min 9,3 km/h (2 Bft)
17.07.2011 16:22 24,4 C 19,3 C 0,4 UV-I 0,0 C 47 % 59 % 0 % 998,6 hPa 0,1 l/m 7,2 km/h (2 Bft) 0 min 0 min 8,7 km/h (2 Bft)
17.07.2011 16:24 24,4 C 19,1 C 0,4 UV-I 0,0 C 47 % 61 % 0 % 999,0 hPa 0,0 l/m 8,0 km/h (2 Bft) 0 min 0 min 23,8 km/h (4 Bft)
17.07.2011 16:26 24,4 C 18,9 C 0,4 UV-I 0,0 C 47 % 62 % 0 % 999,0 hPa 0,1 l/m 8,4 km/h (2 Bft) 0 min 0 min 23,8 km/h (4 Bft)
17.07.2011 16:28 24,4 C 18,7 C 1,0 UV-I 0,0 C 47 % 65 % 0 % 999,0 hPa 0,0 l/m 9,2 km/h (2 Bft) 0 min 0 min 10,0 km/h (2 Bft)
17.07.2011 16:30 24,4 C 18,3 C 1,0 UV-I 0,0 C 47 % 66 % 0 % 999,0 hPa 0,0 l/m 9,6 km/h (2 Bft) 0 min 0 min 10,0 km/h (2 Bft)
17.07.2011 16:32 24,4 C 18,1 C 1,0 UV-I 0,0 C 47 % 67 % 0 % 999,0 hPa 0,0 l/m 9,6 km/h (2 Bft) 0 min 0 min 9,7 km/h (2 Bft)
17.07.2011 16:34 24,4 C 17,7 C 2,0 UV-I 0,0 C 48 % 67 % 0 % 999,0 hPa 0,0 l/m 9,6 km/h (2 Bft) 0 min 0 min 9,7 km/h (2 Bft)
17.07.2011 16:36 24,2 C 17,6 C 2,0 UV-I 0,0 C 48 % 68 % 0 % 999,0 hPa 0,1 l/m 7,6 km/h (2 Bft) 0 min 0 min 6,4 km/h (2 Bft)
17.07.2011 16:38 24,2 C 17,6 C 2,0 UV-I 0,0 C 48 % 70 % 0 % 999,0 hPa 0,0 l/m 6,8 km/h (2 Bft) 0 min 0 min 11,9 km/h (2 Bft)
17.07.2011 16:40 24,2 C 17,6 C 2,0 UV-I 0,0 C 48 % 70 % 0 % 999,0 hPa 0,0 l/m 6,4 km/h (2 Bft) 0 min 0 min 11,9 km/h (2 Bft)
17.07.2011 16:42 24,2 C 17,8 C 2,0 UV-I 0,6 C 48 % 70 % 17 % 999,0 hPa 0,0 l/m 5,6 km/h (1 Bft) 0 min 0 min 7,1 km/h (2 Bft)
17.07.2011 16:44 24,4 C 17,9 C 7,7 UV-I 1,8 C 48 % 71 % 51 % 998,7 hPa 0,0 l/m 5,6 km/h (1 Bft) 0 min 0 min 6,8 km/h (2 Bft)
17.07.2011 16:46 24,4 C 18,0 C 7,7 UV-I 2,4 C 48 % 71 % 69 % 998,7 hPa 0,0 l/m 5,6 km/h (1 Bft) 0 min 0 min 6,1 km/h (2 Bft)
17.07.2011 16:48 24,5 C 18,3 C 8,0 UV-I 3,0 C 48 % 71 % 86 % 998,7 hPa 0,0 l/m 6,0 km/h (2 Bft) 2 min 0 min 5,1 km/h (1 Bft)
17.07.2011 16:50 24,5 C 18,4 C 8,0 UV-I 3,5 C 48 % 71 % 100 % 998,7 hPa 0,0 l/m 5,2 km/h (1 Bft) 2 min 0 min 5,1 km/h (1 Bft)
17.07.2011 16:52 24,6 C 18,7 C 8,0 UV-I 3,8 C 48 % 71 % 100 % 998,7 hPa 0,0 l/m 5,2 km/h (1 Bft) 2 min 0 min 5,1 km/h (1 Bft)
17.07.2011 16:54 24,6 C 18,8 C 7,8 UV-I 4,1 C 48 % 69 % 100 % 998,7 hPa 0,0 l/m 5,2 km/h (1 Bft) 2 min 0 min 5,1 km/h (1 Bft)
17.07.2011 16:56 24,6 C 19,1 C 7,8 UV-I 4,1 C 48 % 68 % 100 % 998,7 hPa 0,0 l/m 5,2 km/h (1 Bft) 2 min 0 min 10,0 km/h (2 Bft)
17.07.2011 16:58 24,6 C 19,2 C 8,0 UV-I 4,3 C 48 % 68 % 100 % 998,7 hPa 0,0 l/m 4,4 km/h (1 Bft) 2 min 0 min 10,0 km/h (2 Bft)
17.07.2011 17:00 24,7 C 19,3 C 8,0 UV-I 4,6 C 49 % 68 % 100 % 998,7 hPa 0,0 l/m 5,2 km/h (1 Bft) 2 min 0 min 12,6 km/h (3 Bft)
17.07.2011 17:02 24,7 C 19,3 C 8,0 UV-I 4,6 C 49 % 66 % 100 % 998,7 hPa 0,0 l/m 5,6 km/h (1 Bft) 2 min 0 min 12,6 km/h (3 Bft)
17.07.2011 17:04 24,8 C 19,4 C 5,3 UV-I 4,2 C 49 % 67 % 100 % 998,9 hPa 0,0 l/m 5,2 km/h (1 Bft) 2 min 0 min 6,1 km/h (2 Bft)
17.07.2011 17:06 24,7 C 19,5 C 5,3 UV-I 3,9 C 49 % 66 % 100 % 998,9 hPa 0,0 l/m 5,2 km/h (1 Bft) 2 min 0 min 5,8 km/h (2 Bft)
17.07.2011 17:08 24,8 C 19,5 C 6,5 UV-I 3,9 C 49 % 66 % 100 % 998,9 hPa 0,0 l/m 4,8 km/h (1 Bft) 2 min 0 min 5,8 km/h (2 Bft)
17.07.2011 17:10 24,8 C 19,6 C 6,5 UV-I 4,1 C 49 % 66 % 100 % 998,9 hPa 0,0 l/m 5,6 km/h (1 Bft) 2 min 0 min 7,4 km/h (2 Bft)
17.07.2011 17:12 24,8 C 19,8 C 6,5 UV-I 4,3 C 49 % 65 % 100 % 998,9 hPa 0,0 l/m 5,2 km/h (1 Bft) 2 min 0 min 7,4 km/h (2 Bft)
17.07.2011 17:14 24,8 C 19,9 C 7,4 UV-I 4,3 C 49 % 64 % 100 % 998,9 hPa 0,0 l/m 5,6 km/h (1 Bft) 2 min 0 min 14,2 km/h (3 Bft)
17.07.2011 17:16 24,9 C 19,9 C 7,4 UV-I 4,1 C 49 % 62 % 100 % 998,9 hPa 0,0 l/m 6,8 km/h (2 Bft) 2 min 0 min 14,2 km/h (3 Bft)
17.07.2011 17:18 24,9 C 19,8 C 4,5 UV-I 4,0 C 49 % 63 % 100 % 998,9 hPa 0,0 l/m 6,4 km/h (2 Bft) 2 min 0 min 7,7 km/h (2 Bft)
17.07.2011 17:20 24,8 C 19,9 C 4,5 UV-I 3,8 C 48 % 61 % 100 % 998,9 hPa 0,0 l/m 6,8 km/h (2 Bft) 2 min 0 min 12,2 km/h (2 Bft)
17.07.2011 17:22 24,8 C 19,9 C 4,5 UV-I 3,5 C 48 % 61 % 100 % 998,9 hPa 0,0 l/m 6,8 km/h (2 Bft) 2 min 0 min 12,2 km/h (2 Bft)
17.07.2011 17:24 24,8 C 19,8 C 3,4 UV-I 3,5 C 48 % 60 % 100 % 998,9 hPa 0,0 l/m 6,8 km/h (2 Bft) 2 min 0 min 7,7 km/h (2 Bft)
17.07.2011 17:26 24,9 C 19,9 C 3,4 UV-I 3,0 C 48 % 60 % 86 % 998,9 hPa 0,0 l/m 5,6 km/h (1 Bft) 2 min 0 min 12,9 km/h (3 Bft)
17.07.2011 17:28 24,9 C 19,7 C 2,0 UV-I 2,8 C 48 % 58 % 80 % 998,9 hPa 0,0 l/m 6,4 km/h (2 Bft) 0 min 0 min 12,9 km/h (3 Bft)
17.07.2011 17:30 24,9 C 19,7 C 2,0 UV-I 2,5 C 48 % 59 % 71 % 998,9 hPa 0,0 l/m 6,8 km/h (2 Bft) 0 min 0 min 6,4 km/h (2 Bft)
17.07.2011 17:32 24,9 C 19,6 C 2,0 UV-I 2,1 C 48 % 58 % 60 % 998,9 hPa 0,0 l/m 6,8 km/h (2 Bft) 0 min 0 min 11,6 km/h (2 Bft)
17.07.2011 17:34 24,8 C 19,7 C 2,1 UV-I 1,8 C 48 % 57 % 51 % 998,9 hPa 0,0 l/m 8,0 km/h (2 Bft) 0 min 0 min 20,6 km/h (4 Bft)
17.07.2011 17:36 24,9 C 19,6 C 2,1 UV-I 1,9 C 48 % 57 % 54 % 998,9 hPa 0,0 l/m 9,6 km/h (2 Bft) 0 min 0 min 29,0 km/h (5 Bft)
17.07.2011 17:38 24,9 C 19,8 C 4,3 UV-I 1,8 C 47 % 57 % 51 % 998,9 hPa 0,0 l/m 10,0 km/h (2 Bft) 0 min 0 min 14,5 km/h (3 Bft)
17.07.2011 17:40 24,9 C 19,9 C 4,3 UV-I 1,9 C 47 % 57 % 54 % 998,9 hPa 0,0 l/m 10,4 km/h (2 Bft) 0 min 0 min 6,4 km/h (2 Bft)
17.07.2011 17:42 24,9 C 19,9 C 4,3 UV-I 2,5 C 47 % 56 % 71 % 998,9 hPa 0,0 l/m 12,0 km/h (2 Bft) 0 min 0 min 13,5 km/h (3 Bft)
17.07.2011 17:44 25,0 C 19,9 C 4,0 UV-I 2,6 C 47 % 56 % 74 % 999,0 hPa 0,0 l/m 11,6 km/h (2 Bft) 0 min 0 min 13,5 km/h (3 Bft)
17.07.2011 17:46 25,0 C 19,9 C 4,0 UV-I 2,4 C 47 % 55 % 69 % 999,0 hPa 0,0 l/m 10,8 km/h (2 Bft) 0 min 0 min 29,9 km/h (5 Bft)
17.07.2011 17:48 25,0 C 19,9 C 2,5 UV-I 2,1 C 47 % 56 % 60 % 999,0 hPa 0,0 l/m 9,6 km/h (2 Bft) 0 min 0 min 7,1 km/h (2 Bft)
17.07.2011 17:50 24,9 C 19,9 C 2,5 UV-I 2,0 C 47 % 55 % 57 % 999,0 hPa 0,0 l/m 9,6 km/h (2 Bft) 0 min 0 min 12,2 km/h (2 Bft)
17.07.2011 17:52 24,9 C 19,8 C 2,5 UV-I 1,9 C 47 % 55 % 54 % 999,0 hPa 0,0 l/m 8,8 km/h (2 Bft) 0 min 0 min 12,2 km/h (2 Bft)
17.07.2011 17:54 24,9 C 19,9 C 2,1 UV-I 1,6 C 47 % 55 % 46 % 999,0 hPa 0,0 l/m 8,4 km/h (2 Bft) 0 min 0 min 10,0 km/h (2 Bft)
17.07.2011 17:56 24,9 C 19,7 C 2,1 UV-I 1,7 C 47 % 55 % 49 % 999,0 hPa 0,0 l/m 7,6 km/h (2 Bft) 0 min 0 min 10,6 km/h (2 Bft)
17.07.2011 17:58 24,9 C 19,7 C 2,2 UV-I 1,7 C 47 % 55 % 49 % 999,0 hPa 0,0 l/m 7,6 km/h (2 Bft) 0 min 0 min 10,6 km/h (2 Bft)
17.07.2011 18:00 24,9 C 19,8 C 2,2 UV-I 1,7 C 47 % 55 % 49 % 999,0 hPa 0,0 l/m 8,4 km/h (2 Bft) 0 min 0 min 9,0 km/h (2 Bft)
17.07.2011 18:02 24,9 C 19,8 C 2,2 UV-I 1,9 C 47 % 55 % 54 % 999,0 hPa 0,0 l/m 8,4 km/h (2 Bft) 0 min 0 min 13,2 km/h (3 Bft)
17.07.2011 18:04 24,9 C 19,9 C 2,3 UV-I 1,9 C 47 % 55 % 54 % 998,5 hPa 0,0 l/m 8,8 km/h (2 Bft) 0 min 0 min 13,2 km/h (3 Bft)
17.07.2011 18:06 24,9 C 19,8 C 2,3 UV-I 1,9 C 46 % 54 % 54 % 998,5 hPa 0,0 l/m 10,4 km/h (2 Bft) 0 min 0 min 11,3 km/h (2 Bft)
17.07.2011 18:08 24,9 C 19,8 C 2,4 UV-I 1,9 C 47 % 55 % 54 % 998,5 hPa 0,0 l/m 10,0 km/h (2 Bft) 0 min 0 min 11,3 km/h (2 Bft)
17.07.2011 18:10 24,9 C 19,9 C 2,4 UV-I 2,0 C 46 % 55 % 57 % 998,5 hPa 0,0 l/m 9,6 km/h (2 Bft) 0 min 0 min 12,6 km/h (3 Bft)
17.07.2011 18:12 24,9 C 20,0 C 2,4 UV-I 2,3 C 47 % 55 % 66 % 998,5 hPa 0,0 l/m 9,6 km/h (2 Bft) 0 min 0 min 12,6 km/h (3 Bft)
17.07.2011 18:14 24,9 C 20,0 C 2,5 UV-I 2,7 C 47 % 55 % 77 % 998,5 hPa 0,0 l/m 9,6 km/h (2 Bft) 0 min 0 min 20,3 km/h (4 Bft)
17.07.2011 18:16 24,9 C 20,3 C 2,5 UV-I 3,1 C 46 % 54 % 89 % 998,5 hPa 0,0 l/m 8,8 km/h (2 Bft) 2 min 0 min 20,3 km/h (4 Bft)
17.07.2011 18:18 24,9 C 20,3 C 2,5 UV-I 3,4 C 47 % 53 % 97 % 998,5 hPa 0,0 l/m 9,2 km/h (2 Bft) 2 min 0 min 11,6 km/h (2 Bft)
17.07.2011 18:20 24,9 C 20,3 C 2,5 UV-I 3,4 C 46 % 53 % 97 % 998,5 hPa 0,0 l/m 10,4 km/h (2 Bft) 2 min 0 min 11,6 km/h (2 Bft)
17.07.2011 18:22 24,9 C 20,4 C 2,5 UV-I 3,2 C 46 % 53 % 91 % 998,5 hPa 0,0 l/m 10,4 km/h (2 Bft) 2 min 0 min 10,9 km/h (2 Bft)
17.07.2011 18:24 24,9 C 20,4 C 2,4 UV-I 3,2 C 46 % 54 % 91 % 998,8 hPa 0,0 l/m 10,0 km/h (2 Bft) 2 min 0 min 5,8 km/h (2 Bft)
17.07.2011 18:26 24,9 C 20,5 C 2,4 UV-I 2,9 C 46 % 54 % 83 % 998,8 hPa 0,0 l/m 10,0 km/h (2 Bft) 2 min 0 min 7,7 km/h (2 Bft)
17.07.2011 18:28 24,9 C 20,4 C 2,0 UV-I 2,7 C 46 % 54 % 77 % 998,8 hPa 0,0 l/m 9,2 km/h (2 Bft) 0 min 0 min 8,0 km/h (2 Bft)
17.07.2011 18:30 24,9 C 20,4 C 2,0 UV-I 2,5 C 46 % 55 % 71 % 998,8 hPa 0,0 l/m 8,4 km/h (2 Bft) 0 min 0 min 8,7 km/h (2 Bft)
17.07.2011 18:32 24,9 C 20,3 C 2,0 UV-I 2,2 C 46 % 55 % 63 % 998,8 hPa 0,0 l/m 8,8 km/h (2 Bft) 0 min 0 min 8,7 km/h (2 Bft)
17.07.2011 18:34 24,8 C 20,3 C 1,6 UV-I 1,9 C 46 % 55 % 54 % 998,8 hPa 0,0 l/m 9,2 km/h (2 Bft) 0 min 0 min 10,6 km/h (2 Bft)
17.07.2011 18:36 24,8 C 20,3 C 1,6 UV-I 1,7 C 46 % 55 % 49 % 998,8 hPa 0,0 l/m 8,8 km/h (2 Bft) 0 min 0 min 10,9 km/h (2 Bft)
17.07.2011 18:38 24,8 C 20,2 C 1,8 UV-I 1,7 C 46 % 56 % 49 % 998,8 hPa 0,0 l/m 8,8 km/h (2 Bft) 0 min 0 min 10,9 km/h (2 Bft)
17.07.2011 18:40 24,8 C 20,2 C 1,8 UV-I 1,7 C 46 % 55 % 49 % 998,8 hPa 0,0 l/m 9,6 km/h (2 Bft) 0 min 0 min 14,2 km/h (3 Bft)
17.07.2011 18:42 24,8 C 20,2 C 1,8 UV-I 2,0 C 46 % 56 % 57 % 998,8 hPa 0,0 l/m 8,8 km/h (2 Bft) 0 min 0 min 14,2 km/h (3 Bft)
17.07.2011 18:44 24,8 C 20,4 C 2,0 UV-I 2,1 C 46 % 54 % 60 % 998,6 hPa 0,0 l/m 9,6 km/h (2 Bft) 0 min 0 min 19,6 km/h (3 Bft)
17.07.2011 18:46 24,8 C 20,4 C 2,0 UV-I 2,1 C 46 % 54 % 60 % 998,6 hPa 0,0 l/m 8,8 km/h (2 Bft) 0 min 0 min 19,6 km/h (3 Bft)
17.07.2011 18:48 24,8 C 20,4 C 1,8 UV-I 2,1 C 46 % 53 % 60 % 998,6 hPa 0,0 l/m 9,6 km/h (2 Bft) 0 min 0 min 5,1 km/h (1 Bft)
17.07.2011 18:50 24,8 C 20,4 C 1,8 UV-I 2,1 C 46 % 52 % 60 % 998,6 hPa 0,0 l/m 8,4 km/h (2 Bft) 0 min 0 min 5,5 km/h (1 Bft)
17.07.2011 18:52 24,8 C 20,5 C 1,8 UV-I 2,0 C 46 % 53 % 57 % 998,6 hPa 0,0 l/m 7,6 km/h (2 Bft) 0 min 0 min 5,5 km/h (1 Bft)
17.07.2011 18:54 24,8 C 20,7 C 1,7 UV-I 1,9 C 46 % 54 % 54 % 998,6 hPa 0,0 l/m 8,0 km/h (2 Bft) 0 min 0 min 9,0 km/h (2 Bft)
17.07.2011 18:56 24,8 C 20,7 C 1,7 UV-I 1,8 C 46 % 54 % 51 % 998,6 hPa 0,0 l/m 8,8 km/h (2 Bft) 0 min 0 min 20,0 km/h (4 Bft)
17.07.2011 18:58 24,8 C 20,5 C 1,7 UV-I 1,7 C 46 % 55 % 49 % 998,6 hPa 0,0 l/m 8,8 km/h (2 Bft) 0 min 0 min 20,0 km/h (4 Bft)
17.07.2011 19:00 24,7 C 20,4 C 1,7 UV-I 1,3 C 46 % 54 % 37 % 998,6 hPa 0,0 l/m 9,2 km/h (2 Bft) 0 min 0 min 9,3 km/h (2 Bft)
17.07.2011 19:02 24,7 C 20,3 C 1,7 UV-I 1,1 C 46 % 54 % 31 % 998,6 hPa 0,0 l/m 10,0 km/h (2 Bft) 0 min 0 min 12,2 km/h (2 Bft)
17.07.2011 19:04 24,7 C 20,1 C 1,5 UV-I 0,9 C 46 % 55 % 26 % 998,7 hPa 0,0 l/m 10,8 km/h (2 Bft) 0 min 0 min 12,9 km/h (3 Bft)
17.07.2011 19:06 24,7 C 20,0 C 1,5 UV-I 0,6 C 46 % 55 % 17 % 998,7 hPa 0,0 l/m 10,4 km/h (2 Bft) 0 min 0 min 15,8 km/h (3 Bft)
17.07.2011 19:08 24,7 C 20,0 C 1,4 UV-I 0,4 C 46 % 55 % 11 % 998,7 hPa 0,0 l/m 9,6 km/h (2 Bft) 0 min 0 min 15,8 km/h (3 Bft)
17.07.2011 19:10 24,7 C 19,9 C 1,4 UV-I 0,3 C 46 % 56 % 9 % 998,7 hPa 0,0 l/m 8,4 km/h (2 Bft) 0 min 0 min 8,4 km/h (2 Bft)
17.07.2011 19:12 24,6 C 19,9 C 1,4 UV-I 0,2 C 46 % 55 % 6 % 998,7 hPa 0,0 l/m 9,2 km/h (2 Bft) 0 min 0 min 8,4 km/h (2 Bft)
17.07.2011 19:14 24,6 C 19,8 C 1,4 UV-I 0,2 C 46 % 55 % 6 % 998,7 hPa 0,0 l/m 8,8 km/h (2 Bft) 0 min 0 min 8,4 km/h (2 Bft)
17.07.2011 19:16 24,6 C 19,8 C 1,4 UV-I 0,2 C 46 % 55 % 6 % 998,7 hPa 0,0 l/m 8,8 km/h (2 Bft) 0 min 0 min 8,4 km/h (2 Bft)
17.07.2011 19:18 24,6 C 19,9 C 1,4 UV-I 0,1 C 46 % 55 % 3 % 998,7 hPa 0,0 l/m 8,8 km/h (2 Bft) 0 min 0 min 10,6 km/h (2 Bft)
17.07.2011 19:20 24,6 C 19,9 C 1,4 UV-I 0,0 C 46 % 55 % 0 % 998,7 hPa 0,0 l/m 9,6 km/h (2 Bft) 0 min 0 min 10,6 km/h (2 Bft)
17.07.2011 19:22 24,6 C 19,9 C 1,4 UV-I 0,0 C 46 % 55 % 0 % 998,7 hPa 0,0 l/m 9,6 km/h (2 Bft) 0 min 0 min 9,7 km/h (2 Bft)
17.07.2011 19:24 24,6 C 19,7 C 1,1 UV-I 0,1 C 46 % 54 % 3 % 998,6 hPa 0,0 l/m 10,4 km/h (2 Bft) 0 min 0 min 9,7 km/h (2 Bft)
17.07.2011 19:26 24,6 C 19,7 C 1,1 UV-I 0,0 C 46 % 54 % 0 % 998,6 hPa 0,0 l/m 10,4 km/h (2 Bft) 0 min 0 min 8,4 km/h (2 Bft)
17.07.2011 19:28 24,5 C 19,7 C 1,1 UV-I 0,0 C 46 % 54 % 0 % 998,6 hPa 0,0 l/m 10,0 km/h (2 Bft) 0 min 0 min 10,3 km/h (2 Bft)
17.07.2011 19:30 24,5 C 19,6 C 1,1 UV-I 0,0 C 46 % 55 % 0 % 998,6 hPa 0,0 l/m 8,8 km/h (2 Bft) 0 min 0 min 10,3 km/h (2 Bft)
17.07.2011 19:32 24,5 C 19,7 C 1,1 UV-I 0,0 C 46 % 55 % 0 % 998,6 hPa 0,0 l/m 8,0 km/h (2 Bft) 0 min 0 min 8,7 km/h (2 Bft)
17.07.2011 19:34 24,5 C 19,6 C 1,2 UV-I 0,0 C 46 % 54 % 0 % 998,6 hPa 0,0 l/m 7,2 km/h (2 Bft) 0 min 0 min 9,7 km/h (2 Bft)
17.07.2011 19:36 24,5 C 19,5 C 1,2 UV-I 0,0 C 46 % 54 % 0 % 998,6 hPa 0,0 l/m 7,2 km/h (2 Bft) 0 min 0 min 9,7 km/h (2 Bft)
17.07.2011 19:38 24,5 C 19,5 C 1,1 UV-I 0,0 C 46 % 54 % 0 % 998,6 hPa 0,0 l/m 8,4 km/h (2 Bft) 0 min 0 min 13,2 km/h (3 Bft)
17.07.2011 19:40 24,4 C 19,5 C 1,1 UV-I 0,0 C 46 % 54 % 0 % 998,6 hPa 0,0 l/m 9,2 km/h (2 Bft) 0 min 0 min 13,2 km/h (3 Bft)
17.07.2011 19:42 24,4 C 19,4 C 1,1 UV-I 0,0 C 46 % 54 % 0 % 998,6 hPa 0,0 l/m 9,6 km/h (2 Bft) 0 min 0 min 9,3 km/h (2 Bft)
17.07.2011 19:44 24,4 C 19,5 C 0,8 UV-I 0,0 C 46 % 54 % 0 % 998,4 hPa 0,0 l/m 10,4 km/h (2 Bft) 0 min 0 min 9,3 km/h (2 Bft)
17.07.2011 19:46 24,4 C 19,4 C 0,8 UV-I 0,0 C 46 % 54 % 0 % 998,4 hPa 0,0 l/m 10,4 km/h (2 Bft) 0 min 0 min 7,4 km/h (2 Bft)
17.07.2011 19:48 24,4 C 19,4 C 0,7 UV-I 0,0 C 46 % 55 % 0 % 998,4 hPa 0,0 l/m 8,8 km/h (2 Bft) 0 min 0 min 10,6 km/h (2 Bft)
17.07.2011 19:50 24,4 C 19,5 C 0,7 UV-I 0,0 C 46 % 54 % 0 % 998,4 hPa 0,0 l/m 7,6 km/h (2 Bft) 0 min 0 min 10,6 km/h (2 Bft)
17.07.2011 19:52 24,4 C 19,4 C 0,7 UV-I 0,0 C 46 % 55 % 0 % 998,4 hPa 0,0 l/m 7,2 km/h (2 Bft) 0 min 0 min 8,7 km/h (2 Bft)
17.07.2011 19:54 24,4 C 19,4 C 0,5 UV-I 0,0 C 46 % 55 % 0 % 998,4 hPa 0,0 l/m 6,4 km/h (2 Bft) 0 min 0 min 8,7 km/h (2 Bft)
17.07.2011 19:56 24,2 C 19,4 C 0,5 UV-I 0,0 C 46 % 54 % 0 % 998,4 hPa 0,0 l/m 7,2 km/h (2 Bft) 0 min 0 min 10,6 km/h (2 Bft)
17.07.2011 19:58 24,2 C 19,4 C 0,3 UV-I 0,0 C 46 % 55 % 0 % 998,4 hPa 0,0 l/m 7,6 km/h (2 Bft) 0 min 0 min 10,6 km/h (2 Bft)
17.07.2011 20:00 24,3 C 19,4 C 0,3 UV-I 0,0 C 46 % 55 % 0 % 998,4 hPa 0,0 l/m 8,4 km/h (2 Bft) 0 min 0 min 27,4 km/h (4 Bft)
17.07.2011 20:02 24,3 C 19,4 C 0,3 UV-I 0,0 C 46 % 55 % 0 % 998,4 hPa 0,0 l/m 9,2 km/h (2 Bft) 0 min 0 min 27,4 km/h (4 Bft)
17.07.2011 20:04 24,2 C 19,3 C 0,2 UV-I 0,0 C 46 % 55 % 0 % 998,4 hPa 0,0 l/m 9,2 km/h (2 Bft) 0 min 0 min 6,4 km/h (2 Bft)
17.07.2011 20:06 24,2 C 19,3 C 0,2 UV-I 0,0 C 46 % 56 % 0 % 998,4 hPa 0,0 l/m 7,2 km/h (2 Bft) 0 min 0 min 3,9 km/h (1 Bft)
17.07.2011 20:08 24,2 C 19,3 C 0,2 UV-I 0,0 C 46 % 56 % 0 % 998,4 hPa 0,0 l/m 6,8 km/h (2 Bft) 0 min 0 min 8,4 km/h (2 Bft)
17.07.2011 20:10 24,2 C 19,3 C 0,2 UV-I 0,0 C 47 % 56 % 0 % 998,4 hPa 0,0 l/m 6,0 km/h (2 Bft) 0 min 0 min 8,4 km/h (2 Bft)
17.07.2011 20:12 24,2 C 19,2 C 0,2 UV-I 0,0 C 46 % 55 % 0 % 998,4 hPa 0,0 l/m 5,6 km/h (1 Bft) 0 min 0 min 15,1 km/h (3 Bft)
17.07.2011 20:14 24,2 C 19,3 C 0,5 UV-I 0,0 C 47 % 54 % 0 % 998,4 hPa 0,0 l/m 5,2 km/h (1 Bft) 0 min 0 min 17,7 km/h (3 Bft)
17.07.2011 20:16 24,2 C 19,3 C 0,5 UV-I 0,0 C 47 % 54 % 0 % 998,4 hPa 0,0 l/m 7,6 km/h (2 Bft) 0 min 0 min 17,7 km/h (3 Bft)
17.07.2011 20:18 24,1 C 19,3 C 0,7 UV-I 0,0 C 47 % 54 % 0 % 998,4 hPa 0,0 l/m 8,4 km/h (2 Bft) 0 min 0 min 12,2 km/h (2 Bft)
17.07.2011 20:20 24,1 C 19,4 C 0,7 UV-I 0,0 C 47 % 55 % 0 % 998,4 hPa 0,0 l/m 8,8 km/h (2 Bft) 0 min 0 min 12,2 km/h (2 Bft)
17.07.2011 20:22 24,1 C 19,5 C 0,7 UV-I 0,0 C 47 % 55 % 0 % 998,4 hPa 0,0 l/m 9,2 km/h (2 Bft) 0 min 0 min 9,0 km/h (2 Bft)
17.07.2011 20:24 24,1 C 19,3 C 0,7 UV-I 0,0 C 47 % 56 % 0 % 998,6 hPa 0,0 l/m 9,2 km/h (2 Bft) 0 min 0 min 9,7 km/h (2 Bft)
17.07.2011 20:26 24,1 C 19,2 C 0,7 UV-I 0,0 C 47 % 56 % 0 % 998,6 hPa 0,0 l/m 8,0 km/h (2 Bft) 0 min 0 min 9,7 km/h (2 Bft)
17.07.2011 20:28 24,1 C 19,2 C 0,7 UV-I 0,0 C 47 % 56 % 0 % 998,6 hPa 0,0 l/m 7,6 km/h (2 Bft) 0 min 0 min 5,8 km/h (2 Bft)
17.07.2011 20:30 24,1 C 19,1 C 0,7 UV-I 0,0 C 47 % 57 % 0 % 998,6 hPa 0,0 l/m 7,2 km/h (2 Bft) 0 min 0 min 5,5 km/h (1 Bft)
17.07.2011 20:32 24,0 C 19,2 C 0,7 UV-I 0,0 C 47 % 57 % 0 % 998,6 hPa 0,0 l/m 7,2 km/h (2 Bft) 0 min 0 min 11,3 km/h (2 Bft)
17.07.2011 20:34 24,0 C 19,1 C 0,6 UV-I 0,0 C 47 % 57 % 0 % 998,6 hPa 0,0 l/m 7,2 km/h (2 Bft) 0 min 0 min 11,3 km/h (2 Bft)
17.07.2011 20:36 24,0 C 19,1 C 0,6 UV-I 0,0 C 47 % 57 % 0 % 998,6 hPa 0,0 l/m 7,2 km/h (2 Bft) 0 min 0 min 10,3 km/h (2 Bft)
17.07.2011 20:38 24,0 C 19,0 C 0,6 UV-I 0,0 C 47 % 57 % 0 % 998,6 hPa 0,0 l/m 6,8 km/h (2 Bft) 0 min 0 min 10,3 km/h (2 Bft)
17.07.2011 20:40 24,0 C 19,0 C 0,6 UV-I 0,0 C 47 % 56 % 0 % 998,6 hPa 0,0 l/m 7,2 km/h (2 Bft) 0 min 0 min 10,0 km/h (2 Bft)
17.07.2011 20:42 24,0 C 19,1 C 0,6 UV-I 0,0 C 47 % 55 % 0 % 998,6 hPa 0,0 l/m 8,0 km/h (2 Bft) 0 min 0 min 10,0 km/h (2 Bft)
17.07.2011 20:44 24,0 C 19,0 C 0,6 UV-I 0,0 C 47 % 55 % 0 % 998,7 hPa 0,0 l/m 7,6 km/h (2 Bft) 0 min 0 min 12,6 km/h (3 Bft)
17.07.2011 20:46 24,0 C 19,1 C 0,6 UV-I 0,0 C 47 % 55 % 0 % 998,7 hPa 0,0 l/m 8,4 km/h (2 Bft) 0 min 0 min 15,1 km/h (3 Bft)
17.07.2011 20:48 24,0 C 19,0 C 0,5 UV-I 0,0 C 47 % 54 % 0 % 998,7 hPa 0,0 l/m 9,2 km/h (2 Bft) 0 min 0 min 15,1 km/h (3 Bft)
17.07.2011 20:50 24,0 C 18,9 C 0,5 UV-I 0,0 C 47 % 54 % 0 % 998,7 hPa 0,0 l/m 9,2 km/h (2 Bft) 0 min 0 min 13,2 km/h (3 Bft)
17.07.2011 20:52 23,9 C 18,9 C 0,5 UV-I 0,0 C 47 % 54 % 0 % 998,7 hPa 0,0 l/m 8,8 km/h (2 Bft) 0 min 0 min 13,2 km/h (3 Bft)
17.07.2011 20:54 23,9 C 18,8 C 0,5 UV-I 0,0 C 47 % 54 % 0 % 998,7 hPa 0,0 l/m 8,4 km/h (2 Bft) 0 min 0 min 7,4 km/h (2 Bft)
17.07.2011 20:56 23,9 C 18,8 C 0,5 UV-I 0,0 C 47 % 54 % 0 % 998,7 hPa 0,0 l/m 8,0 km/h (2 Bft) 0 min 0 min 9,7 km/h (2 Bft)
17.07.2011 20:58 23,9 C 18,7 C 0,4 UV-I 0,0 C 47 % 54 % 0 % 998,7 hPa 0,0 l/m 8,8 km/h (2 Bft) 0 min 0 min 15,4 km/h (3 Bft)
17.07.2011 21:00 23,9 C 18,7 C 0,4 UV-I 0,0 C 47 % 54 % 0 % 998,7 hPa 0,0 l/m 8,4 km/h (2 Bft) 0 min 0 min 15,4 km/h (3 Bft)
17.07.2011 21:02 23,8 C 18,7 C 0,4 UV-I 0,0 C 47 % 54 % 0 % 998,7 hPa 0,0 l/m 8,8 km/h (2 Bft) 0 min 0 min 8,7 km/h (2 Bft)
17.07.2011 21:04 23,8 C 18,5 C 0,4 UV-I 0,0 C 47 % 54 % 0 % 998,9 hPa 0,0 l/m 8,8 km/h (2 Bft) 0 min 0 min 8,7 km/h (2 Bft)
17.07.2011 21:06 23,8 C 18,5 C 0,4 UV-I 0,0 C 47 % 55 % 0 % 998,9 hPa 0,0 l/m 9,2 km/h (2 Bft) 0 min 0 min 4,2 km/h (1 Bft)
17.07.2011 21:08 23,8 C 18,5 C 0,3 UV-I 0,0 C 47 % 55 % 0 % 998,9 hPa 0,0 l/m 8,8 km/h (2 Bft) 0 min 0 min 6,1 km/h (2 Bft)
17.07.2011 21:10 23,8 C 18,5 C 0,3 UV-I 0,0 C 47 % 55 % 0 % 998,9 hPa 0,0 l/m 8,4 km/h (2 Bft) 0 min 0 min 10,6 km/h (2 Bft)
17.07.2011 21:12 23,8 C 18,4 C 0,3 UV-I 0,0 C 47 % 56 % 0 % 998,9 hPa 0,0 l/m 8,0 km/h (2 Bft) 0 min 0 min 11,6 km/h (2 Bft)
17.07.2011 21:14 23,8 C 18,3 C 0,3 UV-I 0,0 C 47 % 56 % 0 % 998,9 hPa 0,0 l/m 7,2 km/h (2 Bft) 0 min 0 min 11,6 km/h (2 Bft)
17.07.2011 21:16 23,7 C 18,3 C 0,3 UV-I 0,0 C 47 % 56 % 0 % 998,9 hPa 0,0 l/m 6,4 km/h (2 Bft) 0 min 0 min 8,7 km/h (2 Bft)
17.07.2011 21:18 23,7 C 18,2 C 0,2 UV-I 0,0 C 47 % 57 % 0 % 998,9 hPa 0,0 l/m 6,8 km/h (2 Bft) 0 min 0 min 8,7 km/h (2 Bft)
17.07.2011 21:20 23,7 C 18,3 C 0,2 UV-I 0,0 C 47 % 57 % 0 % 998,9 hPa 0,0 l/m 6,8 km/h (2 Bft) 0 min 0 min 5,1 km/h (1 Bft)
17.07.2011 21:22 23,7 C 18,2 C 0,2 UV-I 0,0 C 47 % 57 % 0 % 998,9 hPa 0,0 l/m 6,4 km/h (2 Bft) 0 min 0 min 10,0 km/h (2 Bft)
17.07.2011 21:24 23,7 C 18,1 C 0,2 UV-I 0,0 C 47 % 58 % 0 % 998,4 hPa 0,0 l/m 7,2 km/h (2 Bft) 0 min 0 min 10,0 km/h (2 Bft)
17.07.2011 21:26 23,6 C 18,1 C 0,2 UV-I 0,0 C 47 % 58 % 0 % 998,4 hPa 0,0 l/m 8,4 km/h (2 Bft) 0 min 0 min 20,9 km/h (4 Bft)
17.07.2011 21:28 23,6 C 18,1 C 0,2 UV-I 0,0 C 47 % 58 % 0 % 998,4 hPa 0,0 l/m 8,4 km/h (2 Bft) 0 min 0 min 21,9 km/h (4 Bft)
17.07.2011 21:30 23,6 C 18,1 C 0,2 UV-I 0,0 C 47 % 59 % 0 % 998,4 hPa 0,0 l/m 9,2 km/h (2 Bft) 0 min 0 min 21,9 km/h (4 Bft)
17.07.2011 21:32 23,6 C 18,1 C 0,2 UV-I 0,0 C 47 % 59 % 0 % 998,4 hPa 0,0 l/m 9,2 km/h (2 Bft) 0 min 0 min 5,8 km/h (2 Bft)
17.07.2011 21:34 23,6 C 18,1 C 0,2 UV-I 0,0 C 47 % 59 % 0 % 998,4 hPa 0,0 l/m 9,6 km/h (2 Bft) 0 min 0 min 11,6 km/h (2 Bft)
17.07.2011 21:36 23,6 C 17,9 C 0,2 UV-I 0,0 C 47 % 59 % 0 % 998,4 hPa 0,0 l/m 10,0 km/h (2 Bft) 0 min 0 min 11,6 km/h (2 Bft)
17.07.2011 21:38 23,6 C 17,8 C 0,2 UV-I 0,0 C 47 % 60 % 0 % 998,4 hPa 0,0 l/m 9,2 km/h (2 Bft) 0 min 0 min 8,0 km/h (2 Bft)
17.07.2011 21:40 23,6 C 17,9 C 0,2 UV-I 0,0 C 47 % 60 % 0 % 998,4 hPa 0,0 l/m 8,0 km/h (2 Bft) 0 min 0 min 8,0 km/h (2 Bft)
17.07.2011 21:42 23,5 C 17,8 C 0,2 UV-I 0,0 C 47 % 60 % 0 % 998,4 hPa 0,0 l/m 7,6 km/h (2 Bft) 0 min 0 min 19,3 km/h (3 Bft)
17.07.2011 21:44 23,5 C 17,7 C 0,1 UV-I 0,0 C 47 % 61 % 0 % 998,4 hPa 0,0 l/m 8,4 km/h (2 Bft) 0 min 0 min 19,3 km/h (3 Bft)
17.07.2011 21:46 23,5 C 17,7 C 0,1 UV-I 0,0 C 47 % 61 % 0 % 998,4 hPa 0,0 l/m 9,2 km/h (2 Bft) 0 min 0 min 18,0 km/h (3 Bft)
17.07.2011 21:48 23,5 C 17,6 C 0,1 UV-I 0,0 C 47 % 61 % 0 % 998,4 hPa 0,0 l/m 9,2 km/h (2 Bft) 0 min 0 min 14,2 km/h (3 Bft)
17.07.2011 21:50 23,5 C 17,6 C 0,1 UV-I 0,0 C 47 % 61 % 0 % 998,4 hPa 0,0 l/m 9,6 km/h (2 Bft) 0 min 0 min 14,5 km/h (3 Bft)
17.07.2011 21:52 23,4 C 17,6 C 0,1 UV-I 0,0 C 47 % 61 % 0 % 998,4 hPa 0,0 l/m 9,2 km/h (2 Bft) 0 min 0 min 14,5 km/h (3 Bft)
17.07.2011 21:54 23,4 C 17,7 C 0,1 UV-I 0,0 C 47 % 62 % 0 % 998,4 hPa 0,0 l/m 9,2 km/h (2 Bft) 0 min 0 min 10,6 km/h (2 Bft)
17.07.2011 21:56 23,4 C 17,6 C 0,1 UV-I 0,0 C 47 % 62 % 0 % 998,4 hPa 0,0 l/m 8,4 km/h (2 Bft) 0 min 0 min 10,6 km/h (2 Bft)
17.07.2011 21:58 23,4 C 17,5 C 0,1 UV-I 0,0 C 47 % 62 % 0 % 998,4 hPa 0,0 l/m 7,2 km/h (2 Bft) 0 min 0 min 10,6 km/h (2 Bft)
17.07.2011 22:00 23,4 C 17,5 C 0,1 UV-I 0,0 C 47 % 62 % 0 % 998,4 hPa 0,0 l/m 6,4 km/h (2 Bft) 0 min 0 min 10,6 km/h (2 Bft)
17.07.2011 22:02 23,4 C 17,5 C 0,1 UV-I 0,0 C 47 % 63 % 0 % 998,4 hPa 0,0 l/m 6,4 km/h (2 Bft) 0 min 0 min 8,4 km/h (2 Bft)
17.07.2011 22:04 23,2 C 17,5 C 0,1 UV-I 0,0 C 47 % 63 % 0 % 998,5 hPa 0,0 l/m 6,0 km/h (2 Bft) 0 min 0 min 8,4 km/h (2 Bft)
17.07.2011 22:06 23,2 C 17,4 C 0,1 UV-I 0,0 C 47 % 63 % 0 % 998,5 hPa 0,0 l/m 6,0 km/h (2 Bft) 0 min 0 min 13,8 km/h (3 Bft)
17.07.2011 22:08 23,2 C 17,3 C 0,0 UV-I 0,0 C 48 % 63 % 0 % 998,5 hPa 0,0 l/m 6,4 km/h (2 Bft) 0 min 0 min 13,8 km/h (3 Bft)
17.07.2011 22:10 23,3 C 17,3 C 0,0 UV-I 0,0 C 48 % 63 % 0 % 998,5 hPa 0,0 l/m 7,2 km/h (2 Bft) 0 min 0 min 18,3 km/h (3 Bft)
17.07.2011 22:12 23,2 C 17,3 C 0,0 UV-I 0,0 C 48 % 63 % 0 % 998,5 hPa 0,0 l/m 7,6 km/h (2 Bft) 0 min 0 min 18,3 km/h (3 Bft)
17.07.2011 22:14 23,2 C 17,3 C 0,0 UV-I 0,0 C 48 % 64 % 0 % 998,5 hPa 0,0 l/m 8,4 km/h (2 Bft) 0 min 0 min 13,2 km/h (3 Bft)
17.07.2011 22:16 23,3 C 17,3 C 0,0 UV-I 0,0 C 48 % 64 % 0 % 998,5 hPa 0,0 l/m 8,8 km/h (2 Bft) 0 min 0 min 10,3 km/h (2 Bft)
17.07.2011 22:18 23,3 C 17,3 C 0,0 UV-I 0,0 C 48 % 64 % 0 % 998,5 hPa 0,0 l/m 8,8 km/h (2 Bft) 0 min 0 min 10,3 km/h (2 Bft)
17.07.2011 22:20 23,2 C 17,2 C 0,0 UV-I 0,0 C 48 % 64 % 0 % 998,5 hPa 0,0 l/m 9,2 km/h (2 Bft) 0 min 0 min 8,7 km/h (2 Bft)
17.07.2011 22:22 23,2 C 17,2 C 0,0 UV-I 0,0 C 48 % 64 % 0 % 998,5 hPa 0,0 l/m 9,2 km/h (2 Bft) 0 min 0 min 9,0 km/h (2 Bft)
17.07.2011 22:24 23,2 C 17,2 C 0,0 UV-I 0,0 C 48 % 64 % 0 % 998,6 hPa 0,0 l/m 8,0 km/h (2 Bft) 0 min 0 min 9,0 km/h (2 Bft)
17.07.2011 22:26 23,2 C 17,3 C 0,0 UV-I 0,0 C 48 % 64 % 0 % 998,6 hPa 0,0 l/m 8,4 km/h (2 Bft) 0 min 0 min 7,4 km/h (2 Bft)
17.07.2011 22:28 23,2 C 17,2 C 0,1 UV-I 0,0 C 48 % 64 % 0 % 998,6 hPa 0,0 l/m 7,6 km/h (2 Bft) 0 min 0 min 11,9 km/h (2 Bft)
17.07.2011 22:30 23,2 C 17,2 C 0,1 UV-I 0,0 C 48 % 64 % 0 % 998,6 hPa 0,0 l/m 6,8 km/h (2 Bft) 0 min 0 min 14,8 km/h (3 Bft)
17.07.2011 22:32 23,2 C 17,1 C 0,1 UV-I 0,0 C 48 % 64 % 0 % 998,6 hPa 0,0 l/m 7,2 km/h (2 Bft) 0 min 0 min 14,8 km/h (3 Bft)
17.07.2011 22:34 23,2 C 17,1 C 0,1 UV-I 0,0 C 48 % 64 % 0 % 998,6 hPa 0,0 l/m 7,6 km/h (2 Bft) 0 min 0 min 15,4 km/h (3 Bft)
17.07.2011 22:36 23,1 C 17,1 C 0,1 UV-I 0,0 C 48 % 64 % 0 % 998,6 hPa 0,0 l/m 7,6 km/h (2 Bft) 0 min 0 min 15,4 km/h (3 Bft)
17.07.2011 22:38 23,1 C 17,0 C 0,1 UV-I 0,0 C 48 % 65 % 0 % 998,6 hPa 0,0 l/m 7,2 km/h (2 Bft) 0 min 0 min 14,2 km/h (3 Bft)
17.07.2011 22:40 23,1 C 17,1 C 0,1 UV-I 0,0 C 48 % 65 % 0 % 998,6 hPa 0,0 l/m 7,6 km/h (2 Bft) 0 min 0 min 14,2 km/h (3 Bft)
17.07.2011 22:42 23,1 C 17,1 C 0,1 UV-I 0,0 C 48 % 65 % 0 % 998,6 hPa 0,0 l/m 7,2 km/h (2 Bft) 0 min 0 min 9,0 km/h (2 Bft)
17.07.2011 22:44 23,1 C 17,1 C 0,1 UV-I 0,0 C 48 % 65 % 0 % 998,8 hPa 0,0 l/m 7,6 km/h (2 Bft) 0 min 0 min 14,8 km/h (3 Bft)
17.07.2011 22:46 23,1 C 17,0 C 0,1 UV-I 0,0 C 48 % 65 % 0 % 998,8 hPa 0,0 l/m 7,6 km/h (2 Bft) 0 min 0 min 14,8 km/h (3 Bft)
17.07.2011 22:48 23,1 C 16,9 C 0,0 UV-I 0,0 C 48 % 65 % 0 % 998,8 hPa 0,0 l/m 8,0 km/h (2 Bft) 0 min 0 min 8,0 km/h (2 Bft)
17.07.2011 22:50 23,0 C 16,9 C 0,0 UV-I 0,0 C 48 % 66 % 0 % 998,8 hPa 0,0 l/m 7,6 km/h (2 Bft) 0 min 0 min 7,7 km/h (2 Bft)
17.07.2011 22:52 23,0 C 16,9 C 0,0 UV-I 0,0 C 48 % 66 % 0 % 998,8 hPa 0,0 l/m 8,0 km/h (2 Bft) 0 min 0 min 7,7 km/h (2 Bft)
17.07.2011 22:54 23,0 C 16,8 C 0,1 UV-I 0,0 C 48 % 66 % 0 % 998,8 hPa 0,0 l/m 8,0 km/h (2 Bft) 0 min 0 min 7,4 km/h (2 Bft)
17.07.2011 22:56 23,0 C 16,9 C 0,1 UV-I 0,0 C 48 % 66 % 0 % 998,8 hPa 0,0 l/m 7,2 km/h (2 Bft) 0 min 0 min 34,4 km/h (5 Bft)
17.07.2011 22:58 23,0 C 16,9 C 0,0 UV-I 0,0 C 48 % 66 % 0 % 998,8 hPa 0,0 l/m 7,6 km/h (2 Bft) 0 min 0 min 11,6 km/h (2 Bft)
17.07.2011 23:00 23,0 C 16,8 C 0,0 UV-I 0,0 C 48 % 66 % 0 % 998,8 hPa 0,0 l/m 8,0 km/h (2 Bft) 0 min 0 min 11,6 km/h (2 Bft)
17.07.2011 23:02 23,0 C 16,8 C 0,0 UV-I 0,0 C 49 % 67 % 0 % 998,8 hPa 0,0 l/m 7,6 km/h (2 Bft) 0 min 0 min 10,6 km/h (2 Bft)
17.07.2011 23:04 23,0 C 16,8 C 0,0 UV-I 0,0 C 49 % 67 % 0 % 998,7 hPa 0,0 l/m 8,0 km/h (2 Bft) 0 min 0 min 8,0 km/h (2 Bft)
17.07.2011 23:06 23,0 C 16,8 C 0,0 UV-I 0,0 C 49 % 67 % 0 % 998,7 hPa 0,0 l/m 8,4 km/h (2 Bft) 0 min 0 min 14,8 km/h (3 Bft)
17.07.2011 23:08 23,0 C 16,8 C 0,0 UV-I 0,0 C 49 % 67 % 0 % 998,7 hPa 0,0 l/m 8,8 km/h (2 Bft) 0 min 0 min 14,8 km/h (3 Bft)
17.07.2011 23:10 22,9 C 16,8 C 0,0 UV-I 0,0 C 49 % 67 % 0 % 998,7 hPa 0,0 l/m 7,6 km/h (2 Bft) 0 min 0 min 6,4 km/h (2 Bft)
17.07.2011 23:12 22,9 C 16,8 C 0,0 UV-I 0,0 C 49 % 67 % 0 % 998,7 hPa 0,0 l/m 7,2 km/h (2 Bft) 0 min 0 min 15,4 km/h (3 Bft)
17.07.2011 23:14 22,9 C 16,7 C 0,0 UV-I 0,0 C 49 % 67 % 0 % 998,7 hPa 0,0 l/m 6,8 km/h (2 Bft) 0 min 0 min 16,7 km/h (3 Bft)
17.07.2011 23:16 22,9 C 16,7 C 0,0 UV-I 0,0 C 49 % 67 % 0 % 998,7 hPa 0,0 l/m 7,2 km/h (2 Bft) 0 min 0 min 16,7 km/h (3 Bft)
17.07.2011 23:18 22,9 C 16,7 C 0,0 UV-I 0,0 C 49 % 67 % 0 % 998,7 hPa 0,0 l/m 6,4 km/h (2 Bft) 0 min 0 min 8,4 km/h (2 Bft)
17.07.2011 23:20 22,9 C 16,7 C 0,0 UV-I 0,0 C 49 % 67 % 0 % 998,7 hPa 0,0 l/m 6,8 km/h (2 Bft) 0 min 0 min 9,7 km/h (2 Bft)
17.07.2011 23:22 22,9 C 16,6 C 0,0 UV-I 0,0 C 49 % 67 % 0 % 998,7 hPa 0,0 l/m 7,6 km/h (2 Bft) 0 min 0 min 14,5 km/h (3 Bft)
17.07.2011 23:24 22,9 C 16,6 C 0,1 UV-I 0,0 C 49 % 68 % 0 % 998,8 hPa 0,0 l/m 7,2 km/h (2 Bft) 0 min 0 min 14,5 km/h (3 Bft)
17.07.2011 23:26 22,8 C 16,7 C 0,1 UV-I 0,0 C 49 % 68 % 0 % 998,8 hPa 0,0 l/m 6,4 km/h (2 Bft) 0 min 0 min 9,0 km/h (2 Bft)
17.07.2011 23:28 22,8 C 16,7 C 0,0 UV-I 0,0 C 49 % 68 % 0 % 998,8 hPa 0,0 l/m 6,8 km/h (2 Bft) 0 min 0 min 10,9 km/h (2 Bft)
17.07.2011 23:30 22,8 C 16,7 C 0,0 UV-I 0,0 C 49 % 68 % 0 % 998,8 hPa 0,0 l/m 7,2 km/h (2 Bft) 0 min 0 min 11,3 km/h (2 Bft)
17.07.2011 23:32 22,8 C 16,7 C 0,0 UV-I 0,0 C 49 % 68 % 0 % 998,8 hPa 0,0 l/m 7,6 km/h (2 Bft) 0 min 0 min 14,8 km/h (3 Bft)
17.07.2011 23:34 22,8 C 16,7 C 0,1 UV-I 0,0 C 49 % 68 % 0 % 998,8 hPa 0,0 l/m 7,6 km/h (2 Bft) 0 min 0 min 14,8 km/h (3 Bft)
17.07.2011 23:36 22,8 C 16,7 C 0,1 UV-I 0,0 C 49 % 68 % 0 % 998,8 hPa 0,0 l/m 8,0 km/h (2 Bft) 0 min 0 min 9,7 km/h (2 Bft)
17.07.2011 23:38 22,8 C 16,7 C 0,1 UV-I 0,0 C 49 % 68 % 0 % 998,8 hPa 0,0 l/m 8,4 km/h (2 Bft) 0 min 0 min 9,7 km/h (2 Bft)
17.07.2011 23:40 22,8 C 16,7 C 0,1 UV-I 0,0 C 49 % 68 % 0 % 998,8 hPa 0,0 l/m 8,0 km/h (2 Bft) 0 min 0 min 6,1 km/h (2 Bft)
17.07.2011 23:42 22,8 C 16,7 C 0,1 UV-I 0,0 C 49 % 68 % 0 % 998,8 hPa 0,0 l/m 7,6 km/h (2 Bft) 0 min 0 min 7,4 km/h (2 Bft)
17.07.2011 23:44 22,8 C 16,7 C 0,0 UV-I 0,0 C 49 % 69 % 0 % 998,9 hPa 0,0 l/m 7,2 km/h (2 Bft) 0 min 0 min 7,4 km/h (2 Bft)
17.07.2011 23:46 22,8 C 16,7 C 0,0 UV-I 0,0 C 49 % 69 % 0 % 998,9 hPa 0,0 l/m 7,2 km/h (2 Bft) 0 min 0 min 7,4 km/h (2 Bft)
17.07.2011 23:48 22,8 C 16,7 C 0,0 UV-I 0,0 C 49 % 69 % 0 % 998,9 hPa 0,0 l/m 8,0 km/h (2 Bft) 0 min 0 min 16,4 km/h (3 Bft)
17.07.2011 23:50 22,8 C 16,6 C 0,0 UV-I 0,0 C 49 % 69 % 0 % 998,9 hPa 0,0 l/m 8,0 km/h (2 Bft) 0 min 0 min 16,4 km/h (3 Bft)
17.07.2011 23:52 22,8 C 16,5 C 0,0 UV-I 0,0 C 49 % 69 % 0 % 998,9 hPa 0,0 l/m 8,4 km/h (2 Bft) 0 min 0 min 11,6 km/h (2 Bft)
17.07.2011 23:54 22,8 C 16,5 C 0,0 UV-I 0,0 C 49 % 69 % 0 % 998,9 hPa 0,0 l/m 9,2 km/h (2 Bft) 0 min 0 min 13,5 km/h (3 Bft)
17.07.2011 23:56 22,8 C 16,5 C 0,0 UV-I 0,0 C 49 % 70 % 0 % 998,9 hPa 0,0 l/m 8,8 km/h (2 Bft) 0 min 0 min 13,5 km/h (3 Bft)
17.07.2011 23:58 22,8 C 16,5 C 0,1 UV-I 0,0 C 50 % 70 % 0 % 998,9 hPa 0,0 l/m 8,4 km/h (2 Bft) 0 min 0 min 7,1 km/h (2 Bft)
_ Min-Zeit 07:34 05:52 00:00 00:00 18:06 15:16 00:00 04:04 - 05:50 - - 00:44
Minimum _ 22,0 C 13,7 C 0,0 UV-I 0,0 C 46 % 49 % 0 % 995,5 hPa - 0,0 km/h (0 Bft) - - 0,0 km/h (0 Bft)
_ Max-Zeit 17:44 15:04 16:48 12:24 02:42 06:24 08:28 14:44 00:16 17:42 08:26 00:00 22:56
Maximum _ 25,0 C 21,2 C 8,0 UV-I 5,8 C 61 % 93 % 100 % 999,2 hPa 0,4 l/m 12,0 km/h
NO (2 Bft)
2 min 2 min 34,4 km/h
W (5 Bft)
Durchschnitt _ 23,2 C 17,4 C 1,6 UV-I 1,4 C 54 % 74 % 35 % 997,9 hPa #6,4 l/m 6,3 km/h (2 Bft) #6:32 h #8:20 h 9,5 km/h (2 Bft)
© 2012 W. Hausmann